Time,TemperatureF,DewpointF,PressureIn,WindDirection,WindDirectionDegrees,WindSpeedMPH,WindSpeedGustMPH,Humidity,HourlyPrecipIn,Conditions,Clouds,dailyrainin,SoftwareType,DateUTC
2013-03-04 00:00:00,29.7,20.1,28.28,West,279,2.9,2.9,67,0.00,,---,0.00,VWS V14.01,2013-03-04 05:00:00,
2013-03-04 00:05:00,29.7,20.1,28.28,NNW,327,2.9,2.9,67,0.00,,---,0.00,VWS V14.01,2013-03-04 05:05:00,
2013-03-04 00:10:00,29.7,20.1,28.28,NW,309,2.0,2.9,67,0.00,,---,0.00,VWS V14.01,2013-03-04 05:10:00,
2013-03-04 00:15:00,29.5,19.9,28.28,NW,305,2.0,2.0,67,0.00,,---,0.00,VWS V14.01,2013-03-04 05:15:00,
2013-03-04 00:20:00,29.5,19.9,29.08,East,101,0.0,8.0,67,0.00,,,0.00,meteohub,2013-03-04 05:20:00,
2013-03-04 00:25:00,29.5,19.9,28.28,WNW,285,2.0,2.9,67,0.00,,---,0.00,VWS V14.01,2013-03-04 05:25:00,
2013-03-04 00:30:00,29.5,20.3,28.28,WNW,291,0.9,0.9,68,0.00,,---,0.00,VWS V14.01,2013-03-04 05:30:00,
2013-03-04 00:35:00,29.5,20.3,28.28,WNW,298,2.0,2.0,68,0.00,,---,0.00,VWS V14.01,2013-03-04 05:35:00,
2013-03-04 00:40:00,29.5,20.3,29.08,NW,306,0.0,7.0,68,0.00,,,0.00,meteohub,2013-03-04 05:40:00,
2013-03-04 00:42:00,29.5,20.6,28.29,NW,306,2.0,2.0,69,0.00,,---,0.00,VWS V14.01,2013-03-04 05:42:00,
2013-03-04 00:47:00,29.5,20.6,28.28,North,5,2.0,2.0,69,0.00,,---,0.00,VWS V14.01,2013-03-04 05:47:00,
2013-03-04 00:52:00,29.5,20.9,28.29,NNE,29,0.9,2.0,70,0.00,,---,0.00,VWS V14.01,2013-03-04 05:52:00,
2013-03-04 00:57:00,29.7,21.1,28.29,WSW,242,0.9,0.9,70,0.00,,---,0.00,VWS V14.01,2013-03-04 05:57:00,
2013-03-04 01:02:00,29.7,21.1,28.29,NW,321,2.9,2.9,70,0.00,,---,0.00,VWS V14.01,2013-03-04 06:02:00,
2013-03-04 01:07:00,29.7,21.1,28.29,North,355,2.9,2.9,70,0.00,,---,0.00,VWS V14.01,2013-03-04 06:07:00,
2013-03-04 01:12:00,29.7,21.1,28.29,NE,36,2.0,2.9,70,0.00,,---,0.00,VWS V14.01,2013-03-04 06:12:00,
2013-03-04 01:17:00,29.7,21.1,28.29,NNW,337,2.9,2.9,70,0.00,,---,0.00,VWS V14.01,2013-03-04 06:17:00,
2013-03-04 01:22:00,29.5,20.8,29.09,NNW,338,2.0,10.0,70,0.00,,,0.00,meteohub,2013-03-04 06:22:00,
2013-03-04 01:24:00,29.5,20.9,28.29,WNW,284,2.9,2.9,70,0.00,,---,0.00,VWS V14.01,2013-03-04 06:24:00,
2013-03-04 01:29:00,29.5,20.9,28.29,SSW,207,2.9,2.9,70,0.00,,---,0.00,VWS V14.01,2013-03-04 06:29:00,
2013-03-04 01:34:00,29.5,20.9,28.29,NW,313,2.9,2.9,70,0.00,,---,0.00,VWS V14.01,2013-03-04 06:34:00,
2013-03-04 01:39:00,29.5,20.6,28.29,WSW,257,4.9,4.9,69,0.00,,---,0.00,VWS V14.01,2013-03-04 06:39:00,
2013-03-04 01:44:00,29.3,20.7,28.29,WNW,297,4.9,4.9,70,0.00,,---,0.00,VWS V14.01,2013-03-04 06:44:00,
2013-03-04 01:49:00,29.3,20.7,28.29,WSW,246,4.0,4.9,70,0.00,,---,0.00,VWS V14.01,2013-03-04 06:49:00,
2013-03-04 01:50:00,29.3,20.7,28.29,West,267,4.0,4.9,70,0.00,,---,0.00,VWS V14.01,2013-03-04 06:50:00,
2013-03-04 01:54:00,29.3,20.4,28.29,WSW,257,4.0,4.0,69,0.00,,---,0.00,VWS V14.01,2013-03-04 06:54:00,
2013-03-04 01:55:00,29.3,20.4,28.29,WSW,257,4.0,4.0,69,0.00,,---,0.00,VWS V14.01,2013-03-04 06:55:00,
2013-03-04 01:59:00,29.3,20.4,28.29,NW,319,4.0,4.0,69,0.00,,---,0.00,VWS V14.01,2013-03-04 06:59:00,
2013-03-04 02:00:00,29.3,20.4,28.29,NW,319,4.0,4.0,69,0.00,,---,0.00,VWS V14.01,2013-03-04 07:00:00,
2013-03-04 02:05:00,29.1,20.3,29.09,WNW,287,1.0,12.0,69,0.00,,,0.00,meteohub,2013-03-04 07:05:00,
2013-03-04 02:06:00,29.1,20.2,28.29,West,269,2.9,2.9,69,0.00,,---,0.00,VWS V14.01,2013-03-04 07:06:00,
2013-03-04 02:11:00,29.1,20.2,28.29,WNW,300,2.9,2.9,69,0.00,,---,0.00,VWS V14.01,2013-03-04 07:11:00,
2013-03-04 02:16:00,29.1,20.2,28.29,SW,234,4.0,4.0,69,0.00,,---,0.00,VWS V14.01,2013-03-04 07:16:00,
2013-03-04 02:21:00,28.9,20.4,28.29,NW,323,4.0,4.0,70,0.00,,---,0.00,VWS V14.01,2013-03-04 07:21:00,
2013-03-04 02:26:00,28.9,20.4,28.29,West,264,4.0,4.0,70,0.00,,---,0.00,VWS V14.01,2013-03-04 07:26:00,
2013-03-04 02:31:00,28.8,20.3,28.29,West,279,2.9,2.9,70,0.00,,---,0.00,VWS V14.01,2013-03-04 07:31:00,
2013-03-04 02:36:00,28.8,20.3,28.29,WSW,249,2.9,2.9,70,0.00,,---,0.00,VWS V14.01,2013-03-04 07:36:00,
2013-03-04 02:41:00,28.6,20.1,28.29,WNW,302,2.9,2.9,70,0.00,,---,0.00,VWS V14.01,2013-03-04 07:41:00,
2013-03-04 02:43:00,28.6,20.1,29.09,NW,309,5.0,9.0,70,0.00,,,0.00,meteohub,2013-03-04 07:43:00,
2013-03-04 02:46:00,28.6,20.1,28.29,WSW,254,2.9,2.9,70,0.00,,---,0.00,VWS V14.01,2013-03-04 07:46:00,
2013-03-04 02:47:00,28.6,20.1,28.29,WSW,240,2.9,2.9,70,0.00,,---,0.00,VWS V14.01,2013-03-04 07:47:00,
2013-03-04 02:51:00,28.4,19.9,28.29,WNW,289,2.0,2.9,70,0.00,,---,0.00,VWS V14.01,2013-03-04 07:51:00,
2013-03-04 02:52:00,28.4,19.9,28.29,West,273,2.0,2.9,70,0.00,,---,0.00,VWS V14.01,2013-03-04 07:52:00,
2013-03-04 02:56:00,28.2,19.7,28.29,NW,314,2.0,2.9,70,0.00,,---,0.00,VWS V14.01,2013-03-04 07:56:00,
2013-03-04 02:57:00,28.2,19.4,28.29,West,271,2.0,2.9,69,0.00,,---,0.00,VWS V14.01,2013-03-04 07:57:00,
2013-03-04 03:01:00,28.2,19.7,28.29,West,279,2.9,2.9,70,0.00,,---,0.00,VWS V14.01,2013-03-04 08:01:00,
2013-03-04 03:02:00,28.2,19.7,28.29,West,279,2.9,2.9,70,0.00,,---,0.00,VWS V14.01,2013-03-04 08:02:00,
2013-03-04 03:06:00,28.0,19.2,28.29,West,276,2.9,2.9,69,0.00,,---,0.00,VWS V14.01,2013-03-04 08:06:00,
2013-03-04 03:07:00,28.0,19.2,28.29,West,276,2.9,2.9,69,0.00,,---,0.00,VWS V14.01,2013-03-04 08:07:00,
2013-03-04 03:08:00,28.0,19.2,28.29,ENE,63,2.9,2.9,69,0.00,,---,0.00,VWS V14.01,2013-03-04 08:08:00,
2013-03-04 03:11:00,27.9,19.1,28.29,West,276,4.0,4.0,69,0.00,,---,0.00,VWS V14.01,2013-03-04 08:11:00,
2013-03-04 03:12:00,27.9,19.1,28.29,West,276,4.0,4.0,69,0.00,,---,0.00,VWS V14.01,2013-03-04 08:12:00,
2013-03-04 03:13:00,27.9,18.7,28.29,NNW,342,4.0,4.0,68,0.00,,---,0.00,VWS V14.01,2013-03-04 08:13:00,
2013-03-04 03:16:00,27.9,18.7,28.29,WNW,283,4.0,4.0,68,0.00,,---,0.00,VWS V14.01,2013-03-04 08:16:00,
2013-03-04 03:17:00,27.9,18.7,28.29,WNW,283,4.0,4.0,68,0.00,,---,0.00,VWS V14.01,2013-03-04 08:17:00,
2013-03-04 03:18:00,27.9,18.7,28.30,WNW,283,2.9,4.0,68,0.00,,---,0.00,VWS V14.01,2013-03-04 08:18:00,
2013-03-04 03:21:00,27.7,18.5,28.29,NW,321,2.9,4.0,68,0.00,,---,0.00,VWS V14.01,2013-03-04 08:21:00,
2013-03-04 03:22:00,27.7,18.5,28.29,NW,321,2.9,4.0,68,0.00,,---,0.00,VWS V14.01,2013-03-04 08:22:00,
2013-03-04 03:24:00,27.7,18.5,28.29,WNW,300,2.9,2.9,68,0.00,,---,0.00,VWS V14.01,2013-03-04 08:24:00,
2013-03-04 03:26:00,27.5,18.3,28.30,West,267,2.9,2.9,68,0.00,,---,0.00,VWS V14.01,2013-03-04 08:26:00,
2013-03-04 03:27:00,27.5,18.3,28.30,West,267,2.9,2.9,68,0.00,,---,0.00,VWS V14.01,2013-03-04 08:27:00,
2013-03-04 03:29:00,27.3,17.8,28.29,SW,215,4.0,4.0,67,0.00,,---,0.00,VWS V14.01,2013-03-04 08:29:00,
2013-03-04 03:32:00,27.3,17.8,28.30,WSW,256,2.9,4.0,67,0.00,,---,0.00,VWS V14.01,2013-03-04 08:32:00,
2013-03-04 03:34:00,27.3,18.1,28.30,WNW,293,2.9,4.0,68,0.00,,---,0.00,VWS V14.01,2013-03-04 08:34:00,
2013-03-04 03:38:00,27.3,17.8,28.30,West,273,2.9,2.9,67,0.00,,---,0.00,VWS V14.01,2013-03-04 08:38:00,
2013-03-04 03:39:00,27.1,17.6,28.30,West,279,2.9,2.9,67,0.00,,---,0.00,VWS V14.01,2013-03-04 08:39:00,
2013-03-04 03:43:00,27.1,17.6,28.30,NW,319,2.9,2.9,67,0.00,,---,0.00,VWS V14.01,2013-03-04 08:43:00,
2013-03-04 03:44:00,27.1,17.6,28.30,West,259,2.9,2.9,67,0.00,,---,0.00,VWS V14.01,2013-03-04 08:44:00,
2013-03-04 03:48:00,27.1,17.6,28.30,West,265,2.9,2.9,67,0.00,,---,0.00,VWS V14.01,2013-03-04 08:48:00,
2013-03-04 03:49:00,27.1,17.6,28.30,West,281,2.9,2.9,67,0.00,,---,0.00,VWS V14.01,2013-03-04 08:49:00,
2013-03-04 03:53:00,27.0,17.5,28.30,West,259,2.0,2.9,67,0.00,,---,0.00,VWS V14.01,2013-03-04 08:53:00,
2013-03-04 03:54:00,27.0,17.5,28.30,NW,306,2.0,2.9,67,0.00,,---,0.00,VWS V14.01,2013-03-04 08:54:00,
2013-03-04 03:55:00,27.0,17.5,28.30,NW,306,2.0,2.9,67,0.00,,---,0.00,VWS V14.01,2013-03-04 08:55:00,
2013-03-04 03:58:00,27.0,17.9,28.30,NNE,15,2.0,2.9,68,0.00,,---,0.00,VWS V14.01,2013-03-04 08:58:00,
2013-03-04 03:59:00,27.0,17.9,28.30,NW,313,2.0,2.9,68,0.00,,---,0.00,VWS V14.01,2013-03-04 08:59:00,
2013-03-04 04:03:00,27.0,17.9,28.30,West,261,2.0,2.0,68,0.00,,---,0.00,VWS V14.01,2013-03-04 09:03:00,
2013-03-04 04:06:00,27.0,17.5,28.30,WNW,295,2.0,2.0,67,0.00,,---,0.00,VWS V14.01,2013-03-04 09:06:00,
2013-03-04 04:08:00,27.0,17.5,28.30,SW,214,2.9,2.9,67,0.00,,---,0.00,VWS V14.01,2013-03-04 09:08:00,
2013-03-04 04:11:00,27.0,17.5,28.30,West,267,2.9,2.9,67,0.00,,---,0.00,VWS V14.01,2013-03-04 09:11:00,
2013-03-04 04:13:00,27.0,17.5,28.30,NW,319,4.0,4.0,67,0.00,,---,0.00,VWS V14.01,2013-03-04 09:13:00,
2013-03-04 04:14:00,27.0,17.4,29.10,SSW,205,0.0,9.0,67,0.00,,,0.00,meteohub,2013-03-04 09:14:00,
2013-03-04 04:16:00,27.0,17.9,28.30,NNE,14,4.0,4.0,68,0.00,,---,0.00,VWS V14.01,2013-03-04 09:16:00,
2013-03-04 04:20:00,27.0,17.9,28.30,NW,306,2.9,2.9,68,0.00,,---,0.00,VWS V14.01,2013-03-04 09:20:00,
2013-03-04 04:21:00,27.0,17.9,28.30,WSW,247,2.9,2.9,68,0.00,,---,0.00,VWS V14.01,2013-03-04 09:21:00,
2013-03-04 04:25:00,27.0,17.9,28.31,NW,316,2.9,2.9,68,0.00,,---,0.00,VWS V14.01,2013-03-04 09:25:00,
2013-03-04 04:26:00,27.0,17.9,28.31,West,281,2.9,2.9,68,0.00,,---,0.00,VWS V14.01,2013-03-04 09:26:00,
2013-03-04 04:30:00,27.0,17.9,28.31,WSW,256,2.9,2.9,68,0.00,,---,0.00,VWS V14.01,2013-03-04 09:30:00,
2013-03-04 04:31:00,27.0,17.9,28.31,South,169,2.9,2.9,68,0.00,,---,0.00,VWS V14.01,2013-03-04 09:31:00,
2013-03-04 04:35:00,26.8,17.7,28.31,West,279,2.9,2.9,68,0.00,,---,0.00,VWS V14.01,2013-03-04 09:35:00,
2013-03-04 04:36:00,26.8,17.7,28.31,West,279,2.0,2.9,68,0.00,,---,0.00,VWS V14.01,2013-03-04 09:36:00,
2013-03-04 04:39:00,26.8,17.6,29.10,West,280,7.0,8.0,68,0.00,,,0.00,meteohub,2013-03-04 09:39:00,
2013-03-04 04:40:00,26.8,17.7,28.31,WNW,286,2.9,2.9,68,0.00,,---,0.00,VWS V14.01,2013-03-04 09:40:00,
2013-03-04 04:41:00,26.8,17.7,28.31,WSW,252,2.9,2.9,68,0.00,,---,0.00,VWS V14.01,2013-03-04 09:41:00,
2013-03-04 04:42:00,26.8,17.7,28.31,West,275,2.9,2.9,68,0.00,,---,0.00,VWS V14.01,2013-03-04 09:42:00,
2013-03-04 04:45:00,26.8,17.7,28.31,West,269,4.0,4.0,68,0.00,,---,0.00,VWS V14.01,2013-03-04 09:45:00,
2013-03-04 04:46:00,26.8,17.7,28.31,WSW,257,4.0,4.0,68,0.00,,---,0.00,VWS V14.01,2013-03-04 09:46:00,
2013-03-04 04:47:00,26.8,17.7,28.31,WNW,294,4.0,4.0,68,0.00,,---,0.00,VWS V14.01,2013-03-04 09:47:00,
2013-03-04 04:50:00,26.8,18.0,28.31,SW,223,2.9,4.0,69,0.00,,---,0.00,VWS V14.01,2013-03-04 09:50:00,
2013-03-04 04:51:00,26.8,18.0,28.31,West,259,2.9,4.0,69,0.00,,---,0.00,VWS V14.01,2013-03-04 09:51:00,
2013-03-04 04:52:00,26.8,18.0,28.31,SSW,199,2.9,4.0,69,0.00,,---,0.00,VWS V14.01,2013-03-04 09:52:00,
2013-03-04 04:55:00,26.8,18.0,28.31,WNW,295,2.9,4.0,69,0.00,,---,0.00,VWS V14.01,2013-03-04 09:55:00,
2013-03-04 04:56:00,26.8,18.0,28.31,West,279,2.9,4.0,69,0.00,,---,0.00,VWS V14.01,2013-03-04 09:56:00,
2013-03-04 04:57:00,26.6,17.8,28.31,NW,311,2.9,4.0,69,0.00,,---,0.00,VWS V14.01,2013-03-04 09:57:00,
2013-03-04 05:00:00,26.6,17.8,28.31,West,264,2.9,2.9,69,0.00,,---,0.00,VWS V14.01,2013-03-04 10:00:00,
2013-03-04 05:01:00,26.6,17.8,28.31,SW,233,2.9,2.9,69,0.00,,---,0.00,VWS V14.01,2013-03-04 10:01:00,
2013-03-04 05:02:00,26.6,17.8,28.31,WSW,250,2.9,2.9,69,0.00,,---,0.00,VWS V14.01,2013-03-04 10:02:00,
2013-03-04 05:05:00,26.4,17.6,28.31,North,5,2.9,2.9,69,0.00,,---,0.00,VWS V14.01,2013-03-04 10:05:00,
2013-03-04 05:06:00,26.4,17.6,28.31,West,265,2.9,2.9,69,0.00,,---,0.00,VWS V14.01,2013-03-04 10:06:00,
2013-03-04 05:07:00,26.4,17.6,28.31,West,265,2.9,2.9,69,0.00,,---,0.00,VWS V14.01,2013-03-04 10:07:00,
2013-03-04 05:10:00,26.4,17.6,28.31,NW,312,2.9,2.9,69,0.00,,---,0.00,VWS V14.01,2013-03-04 10:10:00,
2013-03-04 05:11:00,26.4,17.6,28.31,WNW,294,2.9,2.9,69,0.00,,---,0.00,VWS V14.01,2013-03-04 10:11:00,
2013-03-04 05:12:00,26.4,17.6,28.31,SW,222,2.9,2.9,69,0.00,,---,0.00,VWS V14.01,2013-03-04 10:12:00,
2013-03-04 05:15:00,26.4,17.6,28.31,NW,309,2.9,2.9,69,0.00,,---,0.00,VWS V14.01,2013-03-04 10:15:00,
2013-03-04 05:16:00,26.2,17.4,28.31,West,268,2.9,2.9,69,0.00,,---,0.00,VWS V14.01,2013-03-04 10:16:00,
2013-03-04 05:17:00,26.2,17.4,28.32,West,279,2.9,2.9,69,0.00,,---,0.00,VWS V14.01,2013-03-04 10:17:00,
2013-03-04 05:20:00,26.4,18.0,28.32,WSW,249,2.0,2.9,70,0.00,,---,0.00,VWS V14.01,2013-03-04 10:20:00,
2013-03-04 05:21:00,26.2,17.8,28.32,North,5,2.0,2.9,70,0.00,,---,0.00,VWS V14.01,2013-03-04 10:21:00,
2013-03-04 05:24:00,26.2,17.8,28.32,West,268,2.9,2.9,70,0.00,,---,0.00,VWS V14.01,2013-03-04 10:24:00,
2013-03-04 05:25:00,26.2,17.8,28.32,SSW,209,2.0,2.9,70,0.00,,---,0.00,VWS V14.01,2013-03-04 10:25:00,
2013-03-04 05:26:00,26.2,17.8,28.32,ENE,58,2.0,2.9,70,0.00,,---,0.00,VWS V14.01,2013-03-04 10:26:00,
2013-03-04 05:29:00,26.2,17.8,28.32,WSW,255,2.9,2.9,70,0.00,,---,0.00,VWS V14.01,2013-03-04 10:29:00,
2013-03-04 05:31:00,26.2,17.8,28.32,West,275,2.9,2.9,70,0.00,,---,0.00,VWS V14.01,2013-03-04 10:31:00,
2013-03-04 05:34:00,26.2,17.8,28.32,West,265,2.9,4.0,70,0.00,,---,0.00,VWS V14.01,2013-03-04 10:34:00,
2013-03-04 05:35:00,26.2,17.8,28.32,West,279,2.9,4.0,70,0.00,,---,0.00,VWS V14.01,2013-03-04 10:35:00,
2013-03-04 05:36:00,26.2,17.8,28.32,West,279,2.9,4.0,70,0.00,,---,0.00,VWS V14.01,2013-03-04 10:36:00,
2013-03-04 05:38:00,26.2,17.8,28.32,NW,321,2.9,2.9,70,0.00,,---,0.00,VWS V14.01,2013-03-04 10:38:00,
2013-03-04 05:39:00,26.2,17.8,28.32,SW,230,2.9,2.9,70,0.00,,---,0.00,VWS V14.01,2013-03-04 10:39:00,
2013-03-04 05:41:00,26.2,17.8,28.32,WSW,257,2.0,2.9,70,0.00,,---,0.00,VWS V14.01,2013-03-04 10:41:00,
2013-03-04 05:43:00,26.2,17.8,28.32,West,273,2.0,2.9,70,0.00,,---,0.00,VWS V14.01,2013-03-04 10:43:00,
2013-03-04 05:44:00,26.2,17.8,28.32,SW,234,2.0,2.9,70,0.00,,---,0.00,VWS V14.01,2013-03-04 10:44:00,
2013-03-04 05:46:00,26.2,17.8,28.32,WNW,296,2.0,2.9,70,0.00,,---,0.00,VWS V14.01,2013-03-04 10:46:00,
2013-03-04 05:48:00,26.2,17.8,28.32,WNW,303,2.0,2.9,70,0.00,,---,0.00,VWS V14.01,2013-03-04 10:48:00,
2013-03-04 05:50:00,26.2,17.8,28.32,WNW,302,2.9,2.9,70,0.00,,---,0.00,VWS V14.01,2013-03-04 10:50:00,
2013-03-04 05:51:00,26.2,17.8,28.33,NE,38,2.9,2.9,70,0.00,,---,0.00,VWS V14.01,2013-03-04 10:51:00,
2013-03-04 05:53:00,26.2,17.8,28.33,WNW,289,2.9,2.9,70,0.00,,---,0.00,VWS V14.01,2013-03-04 10:53:00,
2013-03-04 05:55:00,26.2,17.8,28.33,NW,307,2.9,2.9,70,0.00,,---,0.00,VWS V14.01,2013-03-04 10:55:00,
2013-03-04 05:56:00,26.2,17.8,28.33,NNW,332,2.9,2.9,70,0.00,,---,0.00,VWS V14.01,2013-03-04 10:56:00,
2013-03-04 05:58:00,26.2,17.8,28.33,WSW,239,2.9,4.0,70,0.00,,---,0.00,VWS V14.01,2013-03-04 10:58:00,
2013-03-04 06:00:00,26.2,17.8,28.33,West,280,2.9,4.0,70,0.00,,---,0.00,VWS V14.01,2013-03-04 11:00:00,
2013-03-04 06:01:00,26.2,17.8,28.33,SSW,213,2.9,2.9,70,0.00,,---,0.00,VWS V14.01,2013-03-04 11:01:00,
2013-03-04 06:04:00,26.2,18.1,28.33,NNW,337,2.9,2.9,71,0.00,,---,0.00,VWS V14.01,2013-03-04 11:04:00,
2013-03-04 06:05:00,26.2,18.1,28.33,NNW,335,2.9,2.9,71,0.00,,---,0.00,VWS V14.01,2013-03-04 11:05:00,
2013-03-04 06:06:00,26.2,17.8,28.33,WNW,303,2.9,2.9,70,0.00,,---,0.00,VWS V14.01,2013-03-04 11:06:00,
2013-03-04 06:07:00,26.2,18.1,28.33,West,281,2.9,2.9,71,0.00,,---,0.00,VWS V14.01,2013-03-04 11:07:00,
2013-03-04 06:09:00,26.2,18.1,28.33,WSW,246,2.9,2.9,71,0.00,,---,0.00,VWS V14.01,2013-03-04 11:09:00,
2013-03-04 06:10:00,26.2,18.1,28.33,WSW,246,2.9,2.9,71,0.00,,---,0.00,VWS V14.01,2013-03-04 11:10:00,
2013-03-04 06:11:00,26.2,18.1,28.33,West,273,2.9,2.9,71,0.00,,---,0.00,VWS V14.01,2013-03-04 11:11:00,
2013-03-04 06:12:00,26.2,18.1,28.33,West,270,2.9,2.9,71,0.00,,---,0.00,VWS V14.01,2013-03-04 11:12:00,
2013-03-04 06:14:00,26.2,18.1,28.33,South,185,2.0,2.9,71,0.00,,---,0.00,VWS V14.01,2013-03-04 11:14:00,
2013-03-04 06:15:00,26.2,18.1,28.33,South,185,2.0,2.9,71,0.00,,---,0.00,VWS V14.01,2013-03-04 11:15:00,
2013-03-04 06:18:00,26.2,18.1,28.33,NW,314,2.0,2.0,71,0.00,,---,0.00,VWS V14.01,2013-03-04 11:18:00,
2013-03-04 06:20:00,26.2,18.1,28.33,NW,314,2.0,2.0,71,0.00,,---,0.00,VWS V14.01,2013-03-04 11:20:00,
2013-03-04 06:23:00,26.2,18.1,28.33,WNW,285,2.0,2.0,71,0.00,,---,0.00,VWS V14.01,2013-03-04 11:23:00,
2013-03-04 06:24:00,26.2,18.1,28.33,SW,215,2.0,2.0,71,0.00,,---,0.00,VWS V14.01,2013-03-04 11:24:00,
2013-03-04 06:25:00,26.2,18.1,28.33,SW,215,2.0,2.0,71,0.00,,---,0.00,VWS V14.01,2013-03-04 11:25:00,
2013-03-04 06:26:00,26.2,18.1,29.13,West,267,3.0,12.0,71,0.00,,,0.00,meteohub,2013-03-04 11:26:00,
2013-03-04 06:28:00,26.2,18.1,28.33,NNW,346,2.9,2.9,71,0.00,,---,0.00,VWS V14.01,2013-03-04 11:28:00,
2013-03-04 06:30:00,26.2,18.1,28.33,WNW,290,2.9,2.9,71,0.00,,---,0.00,VWS V14.01,2013-03-04 11:30:00,
2013-03-04 06:32:00,26.2,18.1,28.33,WSW,244,2.9,2.9,71,0.00,,---,0.00,VWS V14.01,2013-03-04 11:32:00,
2013-03-04 06:33:00,26.2,18.1,28.33,West,261,4.0,4.0,71,0.00,,---,0.00,VWS V14.01,2013-03-04 11:33:00,
2013-03-04 06:34:00,26.2,18.1,28.33,West,261,4.0,4.0,71,0.00,,---,0.00,VWS V14.01,2013-03-04 11:34:00,
2013-03-04 06:35:00,26.2,18.1,28.33,NNW,329,4.0,4.0,71,0.00,,---,0.00,VWS V14.01,2013-03-04 11:35:00,
2013-03-04 06:37:00,26.2,18.1,28.33,WNW,296,4.0,4.0,71,0.00,,---,0.00,VWS V14.01,2013-03-04 11:37:00,
2013-03-04 06:39:00,26.2,18.1,28.33,West,265,4.0,4.0,71,0.00,,---,0.00,VWS V14.01,2013-03-04 11:39:00,
2013-03-04 06:40:00,26.2,18.1,28.33,NNE,26,4.0,4.0,71,0.00,,---,0.00,VWS V14.01,2013-03-04 11:40:00,
2013-03-04 06:42:00,26.2,18.1,28.33,West,269,4.0,4.0,71,0.00,,---,0.00,VWS V14.01,2013-03-04 11:42:00,
2013-03-04 06:44:00,26.2,18.1,28.33,West,275,2.9,4.0,71,0.00,,---,0.00,VWS V14.01,2013-03-04 11:44:00,
2013-03-04 06:46:00,26.2,18.1,28.34,West,264,2.9,2.9,71,0.00,,---,0.00,VWS V14.01,2013-03-04 11:46:00,
2013-03-04 06:47:00,26.2,18.1,28.33,West,260,2.9,2.9,71,0.00,,---,0.00,VWS V14.01,2013-03-04 11:47:00,
2013-03-04 06:49:00,26.2,18.1,28.33,SW,218,2.9,2.9,71,0.00,,---,0.00,VWS V14.01,2013-03-04 11:49:00,
2013-03-04 06:51:00,26.2,18.1,28.34,NNW,343,2.9,2.9,71,0.00,,---,0.00,VWS V14.01,2013-03-04 11:51:00,
2013-03-04 06:52:00,26.2,18.1,28.34,West,273,2.9,2.9,71,0.00,,---,0.00,VWS V14.01,2013-03-04 11:52:00,
2013-03-04 06:54:00,26.2,18.1,28.34,West,272,2.9,2.9,71,0.00,,---,0.00,VWS V14.01,2013-03-04 11:54:00,
2013-03-04 06:56:00,26.2,18.1,28.34,NW,325,2.9,2.9,71,0.00,,---,0.00,VWS V14.01,2013-03-04 11:56:00,
2013-03-04 06:57:00,26.2,18.1,28.34,NW,306,4.0,4.0,71,0.00,,---,0.00,VWS V14.01,2013-03-04 11:57:00,
2013-03-04 07:00:00,26.4,18.3,28.34,SW,234,4.0,4.0,71,0.00,,---,0.00,VWS V14.01,2013-03-04 12:00:00,
2013-03-04 07:01:00,26.2,18.1,28.34,NW,326,2.9,4.0,71,0.00,,---,0.00,VWS V14.01,2013-03-04 12:01:00,
2013-03-04 07:02:00,26.4,18.3,28.34,West,275,2.9,4.0,71,0.00,,---,0.00,VWS V14.01,2013-03-04 12:02:00,
2013-03-04 07:05:00,26.4,18.3,28.34,North,5,2.9,4.0,71,0.00,,---,0.00,VWS V14.01,2013-03-04 12:05:00,
2013-03-04 07:06:00,26.4,18.3,28.34,NNW,335,4.0,4.0,71,0.00,,---,0.00,VWS V14.01,2013-03-04 12:06:00,
2013-03-04 07:07:00,26.4,18.3,28.34,NNW,343,4.0,4.0,71,0.00,,---,0.00,VWS V14.01,2013-03-04 12:07:00,
2013-03-04 07:10:00,26.4,18.3,28.34,West,267,4.0,4.0,71,0.00,,---,0.00,VWS V14.01,2013-03-04 12:10:00,
2013-03-04 07:11:00,26.4,18.3,28.34,NW,307,4.0,4.0,71,0.00,,---,0.00,VWS V14.01,2013-03-04 12:11:00,
2013-03-04 07:14:00,26.4,18.3,28.34,SW,229,4.0,4.0,71,0.00,,---,0.00,VWS V14.01,2013-03-04 12:14:00,
2013-03-04 07:15:00,26.4,18.3,28.34,NW,305,4.0,4.0,71,0.00,,---,0.00,VWS V14.01,2013-03-04 12:15:00,
2013-03-04 07:16:00,26.4,18.6,28.34,NNW,344,4.0,4.0,72,0.00,,---,0.00,VWS V14.01,2013-03-04 12:16:00,
2013-03-04 07:19:00,26.6,18.8,28.34,WNW,303,2.9,4.0,72,0.00,,---,0.00,VWS V14.01,2013-03-04 12:19:00,
2013-03-04 07:20:00,26.6,18.8,28.34,West,273,2.9,4.0,72,0.00,,---,0.00,VWS V14.01,2013-03-04 12:20:00,
2013-03-04 07:21:00,26.6,18.8,28.34,West,273,2.9,4.0,72,0.00,,---,0.00,VWS V14.01,2013-03-04 12:21:00,
2013-03-04 07:25:00,26.6,18.8,28.35,SW,221,2.0,4.0,72,0.00,,---,0.00,VWS V14.01,2013-03-04 12:25:00,
2013-03-04 07:26:00,26.8,19.0,28.34,SW,221,2.0,4.0,72,0.00,,---,0.00,VWS V14.01,2013-03-04 12:26:00,
2013-03-04 07:31:00,26.8,19.0,28.35,West,277,2.9,2.9,72,0.00,,---,0.00,VWS V14.01,2013-03-04 12:31:00,
2013-03-04 07:35:00,27.0,18.9,29.14,North,355,6.0,9.0,71,0.00,,,0.00,meteohub,2013-03-04 12:35:00,
2013-03-04 07:36:00,27.0,18.9,28.35,NNW,342,2.9,2.9,71,0.00,,---,0.00,VWS V14.01,2013-03-04 12:36:00,
2013-03-04 07:41:00,27.0,18.9,28.35,WNW,282,4.0,4.0,71,0.00,,---,0.00,VWS V14.01,2013-03-04 12:41:00,
2013-03-04 07:46:00,27.1,19.0,28.35,West,266,4.0,4.0,71,0.00,,---,0.00,VWS V14.01,2013-03-04 12:46:00,
2013-03-04 07:51:00,27.3,18.8,28.35,NNW,340,4.0,4.0,70,0.00,,---,0.00,VWS V14.01,2013-03-04 12:51:00,
2013-03-04 07:56:00,27.5,18.7,28.35,West,267,4.9,4.9,69,0.00,,---,0.00,VWS V14.01,2013-03-04 12:56:00,
2013-03-04 07:59:00,27.5,18.7,28.35,West,265,4.9,4.9,69,0.00,,---,0.00,VWS V14.01,2013-03-04 12:59:00,
2013-03-04 08:01:00,27.7,18.9,28.35,West,261,4.0,4.0,69,0.00,,---,0.00,VWS V14.01,2013-03-04 13:01:00,
2013-03-04 08:04:00,27.7,18.9,28.35,West,271,2.9,4.0,69,0.00,,---,0.00,VWS V14.01,2013-03-04 13:04:00,
2013-03-04 08:06:00,27.7,18.5,28.35,West,277,4.0,4.0,68,0.00,,---,0.00,VWS V14.01,2013-03-04 13:06:00,
2013-03-04 08:09:00,27.9,18.7,28.35,WSW,239,4.0,4.0,68,0.00,,---,0.00,VWS V14.01,2013-03-04 13:09:00,
2013-03-04 08:11:00,27.9,18.7,29.15,West,268,1.0,19.0,68,0.00,,,0.00,meteohub,2013-03-04 13:11:00,
2013-03-04 08:13:00,27.9,18.7,28.36,West,269,4.0,4.0,68,0.00,,---,0.00,VWS V14.01,2013-03-04 13:13:00,
2013-03-04 08:14:00,27.9,18.7,28.35,NW,317,4.0,4.0,68,0.00,,---,0.00,VWS V14.01,2013-03-04 13:14:00,
2013-03-04 08:18:00,27.9,18.4,28.36,WNW,288,4.0,4.0,67,0.00,,---,0.00,VWS V14.01,2013-03-04 13:18:00,
2013-03-04 08:19:00,27.9,18.4,28.36,NW,317,4.0,4.0,67,0.00,,---,0.00,VWS V14.01,2013-03-04 13:19:00,
2013-03-04 08:23:00,27.9,18.4,28.36,North,10,4.9,4.9,67,0.00,,---,0.00,VWS V14.01,2013-03-04 13:23:00,
2013-03-04 08:24:00,27.9,18.7,28.36,NNE,26,4.9,4.9,68,0.00,,---,0.00,VWS V14.01,2013-03-04 13:24:00,
2013-03-04 08:28:00,28.0,18.8,28.36,North,355,4.0,4.9,68,0.00,,---,0.00,VWS V14.01,2013-03-04 13:28:00,
2013-03-04 08:29:00,28.0,18.5,28.36,WNW,287,4.0,4.9,67,0.00,,---,0.00,VWS V14.01,2013-03-04 13:29:00,
2013-03-04 08:33:00,28.0,18.5,28.36,West,268,4.0,4.0,67,0.00,,---,0.00,VWS V14.01,2013-03-04 13:33:00,
2013-03-04 08:34:00,28.0,18.1,28.36,WNW,300,4.0,4.0,66,0.00,,---,0.00,VWS V14.01,2013-03-04 13:34:00,
2013-03-04 08:39:00,28.2,18.3,28.36,South,191,4.0,4.0,66,0.00,,---,0.00,VWS V14.01,2013-03-04 13:39:00,
2013-03-04 08:44:00,28.2,18.3,28.36,NE,36,2.9,4.0,66,0.00,,---,0.00,VWS V14.01,2013-03-04 13:44:00,
2013-03-04 08:49:00,28.4,18.9,28.36,NNE,23,2.9,4.0,67,0.00,,---,0.00,VWS V14.01,2013-03-04 13:49:00,
2013-03-04 08:54:00,28.6,18.3,28.37,NNW,329,2.9,2.9,65,0.00,,---,0.00,VWS V14.01,2013-03-04 13:54:00,
2013-03-04 08:59:00,28.6,18.0,28.36,NNW,342,4.9,4.9,64,0.00,,---,0.00,VWS V14.01,2013-03-04 13:59:00,
2013-03-04 09:04:00,28.8,18.5,28.36,SSW,210,6.0,6.0,65,0.00,,---,0.00,VWS V14.01,2013-03-04 14:04:00,
2013-03-04 09:09:00,28.9,19.0,28.36,South,173,4.0,4.9,66,0.00,,---,0.00,VWS V14.01,2013-03-04 14:09:00,
2013-03-04 09:10:00,28.9,19.0,28.36,SW,214,4.0,4.9,66,0.00,,---,0.00,VWS V14.01,2013-03-04 14:10:00,
2013-03-04 09:14:00,29.1,18.8,28.36,WNW,298,4.0,4.9,65,0.00,,---,0.00,VWS V14.01,2013-03-04 14:14:00,
2013-03-04 09:15:00,29.1,18.8,28.36,SW,234,4.0,4.9,65,0.00,,---,0.00,VWS V14.01,2013-03-04 14:15:00,
2013-03-04 09:20:00,29.5,19.2,29.16,West,279,7.0,12.0,65,0.00,,,0.00,meteohub,2013-03-04 14:20:00,
2013-03-04 09:21:00,29.5,19.2,28.36,NNW,342,4.9,4.9,65,0.00,,---,0.00,VWS V14.01,2013-03-04 14:21:00,
2013-03-04 09:26:00,29.7,19.0,28.36,SE,142,4.9,4.9,64,0.00,,---,0.00,VWS V14.01,2013-03-04 14:26:00,
2013-03-04 09:31:00,29.7,19.0,28.36,NW,319,4.0,4.9,64,0.00,,---,0.00,VWS V14.01,2013-03-04 14:31:00,
2013-03-04 09:36:00,30.0,19.3,28.36,West,261,4.9,4.9,64,0.00,,---,0.00,VWS V14.01,2013-03-04 14:36:00,
2013-03-04 09:41:00,30.4,19.7,28.36,NW,322,4.0,4.9,64,0.00,,---,0.00,VWS V14.01,2013-03-04 14:41:00,
2013-03-04 09:46:00,30.7,20.0,28.36,NNW,330,4.0,4.9,64,0.00,,---,0.00,VWS V14.01,2013-03-04 14:46:00,
2013-03-04 09:51:00,30.9,20.2,28.37,NW,315,4.0,4.0,64,0.00,,---,0.00,VWS V14.01,2013-03-04 14:51:00,
2013-03-04 09:52:00,31.1,20.4,28.36,North,5,4.0,4.0,64,0.00,,---,0.00,VWS V14.01,2013-03-04 14:52:00,
2013-03-04 09:53:00,31.3,20.5,29.16,WNW,285,4.0,11.0,64,0.00,,,0.00,meteohub,2013-03-04 14:53:00,
2013-03-04 09:56:00,31.6,20.8,28.36,West,281,4.0,4.0,64,0.00,,---,0.00,VWS V14.01,2013-03-04 14:56:00,
2013-03-04 09:57:00,31.6,21.2,28.36,SW,215,4.0,4.0,65,0.00,,---,0.00,VWS V14.01,2013-03-04 14:57:00,
2013-03-04 10:03:00,31.6,19.7,28.36,NNW,336,4.9,4.9,61,0.00,,---,0.00,VWS V14.01,2013-03-04 15:03:00,
2013-03-04 10:08:00,31.1,20.0,28.37,West,280,6.0,6.0,63,0.00,,---,0.00,VWS V14.01,2013-03-04 15:08:00,
2013-03-04 10:13:00,30.9,19.8,28.37,WNW,298,4.9,6.0,63,0.00,,---,0.00,VWS V14.01,2013-03-04 15:13:00,
2013-03-04 10:18:00,30.9,19.8,28.37,West,267,4.0,4.9,63,0.00,,---,0.00,VWS V14.01,2013-03-04 15:18:00,
2013-03-04 10:19:00,30.9,19.8,28.36,WNW,299,4.9,4.9,63,0.00,,---,0.00,VWS V14.01,2013-03-04 15:19:00,
2013-03-04 10:23:00,30.7,19.6,28.36,SW,222,4.9,4.9,63,0.00,,---,0.00,VWS V14.01,2013-03-04 15:23:00,
2013-03-04 10:24:00,30.7,20.0,28.36,WNW,287,4.9,4.9,64,0.00,,---,0.00,VWS V14.01,2013-03-04 15:24:00,
2013-03-04 10:28:00,30.7,20.0,28.36,South,187,4.0,4.9,64,0.00,,---,0.00,VWS V14.01,2013-03-04 15:28:00,
2013-03-04 10:29:00,30.7,20.0,28.36,South,187,4.0,4.9,64,0.00,,---,0.00,VWS V14.01,2013-03-04 15:29:00,
2013-03-04 10:33:00,30.7,20.0,28.36,North,350,4.0,4.0,64,0.00,,---,0.00,VWS V14.01,2013-03-04 15:33:00,
2013-03-04 10:34:00,30.7,20.0,28.36,North,350,4.0,4.0,64,0.00,,---,0.00,VWS V14.01,2013-03-04 15:34:00,
2013-03-04 10:38:00,30.7,20.0,28.36,NW,315,4.0,4.0,64,0.00,,---,0.00,VWS V14.01,2013-03-04 15:38:00,
2013-03-04 10:39:00,30.7,20.0,28.36,NW,315,4.0,4.0,64,0.00,,---,0.00,VWS V14.01,2013-03-04 15:39:00,
2013-03-04 10:44:00,30.9,20.1,29.16,WSW,241,6.0,12.0,64,0.00,,,0.00,meteohub,2013-03-04 15:44:00,
2013-03-04 10:46:00,30.9,20.2,28.36,WNW,292,4.9,4.9,64,0.00,,---,0.00,VWS V14.01,2013-03-04 15:46:00,
2013-03-04 10:51:00,30.9,20.2,28.36,SSE,167,4.0,4.9,64,0.00,,---,0.00,VWS V14.01,2013-03-04 15:51:00,
2013-03-04 10:56:00,31.1,20.4,28.36,WNW,284,4.0,4.9,64,0.00,,---,0.00,VWS V14.01,2013-03-04 15:56:00,
2013-03-04 11:01:00,30.9,19.8,28.36,West,259,4.0,4.0,63,0.00,,---,0.00,VWS V14.01,2013-03-04 16:01:00,
2013-03-04 11:06:00,30.9,19.8,28.36,West,268,4.9,4.9,63,0.00,,---,0.00,VWS V14.01,2013-03-04 16:06:00,
2013-03-04 11:10:00,30.7,19.9,29.16,WSW,244,6.0,13.0,64,0.00,,,0.00,meteohub,2013-03-04 16:10:00,
2013-03-04 11:11:00,30.7,20.0,28.36,SW,233,6.0,6.0,64,0.00,,---,0.00,VWS V14.01,2013-03-04 16:11:00,
2013-03-04 11:16:00,31.3,20.9,28.36,WNW,283,4.9,4.9,65,0.00,,---,0.00,VWS V14.01,2013-03-04 16:16:00,
2013-03-04 11:21:00,31.5,20.7,28.36,WSW,238,4.0,4.9,64,0.00,,---,0.00,VWS V14.01,2013-03-04 16:21:00,
2013-03-04 11:22:00,31.5,20.7,28.36,West,268,4.0,4.9,64,0.00,,---,0.00,VWS V14.01,2013-03-04 16:22:00,
2013-03-04 11:26:00,31.6,20.8,29.16,SSW,203,4.0,15.0,64,0.00,,,0.00,meteohub,2013-03-04 16:26:00,
2013-03-04 11:28:00,31.8,21.4,28.36,WSW,255,4.0,4.0,65,0.00,,---,0.00,VWS V14.01,2013-03-04 16:28:00,
2013-03-04 11:33:00,32.4,21.2,28.36,West,278,4.0,4.0,63,0.00,,---,0.00,VWS V14.01,2013-03-04 16:33:00,
2013-03-04 11:38:00,32.9,22.4,28.36,SSW,193,4.9,4.9,65,0.00,,---,0.00,VWS V14.01,2013-03-04 16:38:00,
2013-03-04 11:43:00,33.4,22.5,28.36,WSW,250,4.9,4.9,64,0.00,,---,0.00,VWS V14.01,2013-03-04 16:43:00,
2013-03-04 11:48:00,33.6,21.6,28.36,NNW,334,4.9,4.9,61,0.00,,---,0.00,VWS V14.01,2013-03-04 16:48:00,
2013-03-04 11:53:00,33.6,22.0,28.36,SW,226,4.9,4.9,62,0.00,,---,0.00,VWS V14.01,2013-03-04 16:53:00,
2013-03-04 11:58:00,33.6,22.4,28.36,NW,309,4.9,4.9,63,0.00,,---,0.00,VWS V14.01,2013-03-04 16:58:00,
2013-03-04 11:59:00,33.6,22.0,28.37,NNE,15,4.9,4.9,62,0.00,,---,0.00,VWS V14.01,2013-03-04 16:59:00,
2013-03-04 12:03:00,33.4,21.4,28.36,NNW,333,4.9,4.9,61,0.00,,---,0.00,VWS V14.01,2013-03-04 17:03:00,
2013-03-04 12:04:00,33.4,21.8,28.36,WSW,258,4.9,4.9,62,0.00,,---,0.00,VWS V14.01,2013-03-04 17:04:00,
2013-03-04 12:08:00,33.3,21.7,28.36,West,280,4.9,4.9,62,0.00,,---,0.00,VWS V14.01,2013-03-04 17:08:00,
2013-03-04 12:09:00,33.3,21.7,28.36,West,263,4.9,4.9,62,0.00,,---,0.00,VWS V14.01,2013-03-04 17:09:00,
2013-03-04 12:13:00,33.1,21.5,28.36,SW,232,6.0,6.0,62,0.00,,---,0.00,VWS V14.01,2013-03-04 17:13:00,
2013-03-04 12:14:00,33.1,21.5,28.36,WSW,255,6.0,6.0,62,0.00,,---,0.00,VWS V14.01,2013-03-04 17:14:00,
2013-03-04 12:18:00,32.9,21.3,28.36,NNW,344,6.9,6.9,62,0.00,,---,0.00,VWS V14.01,2013-03-04 17:18:00,
2013-03-04 12:19:00,32.9,21.3,28.36,West,275,6.9,6.9,62,0.00,,---,0.00,VWS V14.01,2013-03-04 17:19:00,
2013-03-04 12:23:00,33.1,21.9,28.35,WNW,284,6.0,6.0,63,0.00,,---,0.00,VWS V14.01,2013-03-04 17:23:00,
2013-03-04 12:24:00,33.1,21.5,28.36,NW,319,6.0,6.0,62,0.00,,---,0.00,VWS V14.01,2013-03-04 17:24:00,
2013-03-04 12:28:00,33.3,22.1,28.35,NW,309,4.9,6.0,63,0.00,,---,0.00,VWS V14.01,2013-03-04 17:28:00,
2013-03-04 12:29:00,33.4,21.8,28.35,West,259,4.9,6.0,62,0.00,,---,0.00,VWS V14.01,2013-03-04 17:29:00,
2013-03-04 12:33:00,33.8,22.2,28.35,NW,317,6.9,6.9,62,0.00,,---,0.00,VWS V14.01,2013-03-04 17:33:00,
2013-03-04 12:34:00,34.2,22.8,29.15,NW,325,6.0,15.0,63,0.00,,,0.00,meteohub,2013-03-04 17:34:00,
2013-03-04 12:36:00,34.2,22.9,28.36,NW,319,6.9,6.9,63,0.00,,---,0.00,VWS V14.01,2013-03-04 17:36:00,
2013-03-04 12:38:00,34.3,22.6,28.35,NW,315,6.9,6.9,62,0.00,,---,0.00,VWS V14.01,2013-03-04 17:38:00,
2013-03-04 12:41:00,34.9,23.6,28.35,North,355,6.0,6.9,63,0.00,,---,0.00,VWS V14.01,2013-03-04 17:41:00,
2013-03-04 12:43:00,34.9,22.8,28.35,West,274,6.0,6.9,61,0.00,,---,0.00,VWS V14.01,2013-03-04 17:43:00,
2013-03-04 12:46:00,35.1,22.6,28.35,NNW,344,6.0,6.9,60,0.00,,---,0.00,VWS V14.01,2013-03-04 17:46:00,
2013-03-04 12:50:00,34.9,22.4,28.35,ENE,59,6.9,6.9,60,0.00,,---,0.00,VWS V14.01,2013-03-04 17:50:00,
2013-03-04 12:51:00,34.7,22.2,28.35,WNW,300,6.9,6.9,60,0.00,,---,0.00,VWS V14.01,2013-03-04 17:51:00,
2013-03-04 12:55:00,34.9,22.8,28.35,SW,216,6.9,6.9,61,0.00,,---,0.00,VWS V14.01,2013-03-04 17:55:00,
2013-03-04 12:56:00,34.9,22.4,28.35,NW,304,6.9,6.9,60,0.00,,---,0.00,VWS V14.01,2013-03-04 17:56:00,
2013-03-04 13:00:00,35.2,23.1,28.35,West,259,6.0,6.9,61,0.00,,---,0.00,VWS V14.01,2013-03-04 18:00:00,
2013-03-04 13:01:00,35.2,23.5,28.34,NNW,346,6.0,6.0,62,0.00,,---,0.00,VWS V14.01,2013-03-04 18:01:00,
2013-03-04 13:05:00,35.2,22.7,28.34,West,275,6.0,6.0,60,0.00,,---,0.00,VWS V14.01,2013-03-04 18:05:00,
2013-03-04 13:06:00,35.2,22.7,28.34,SSW,206,6.0,6.0,60,0.00,,---,0.00,VWS V14.01,2013-03-04 18:06:00,
2013-03-04 13:10:00,35.6,23.9,28.34,WNW,292,6.0,6.0,62,0.00,,---,0.00,VWS V14.01,2013-03-04 18:10:00,
2013-03-04 13:11:00,35.6,23.5,28.34,WNW,284,6.0,6.0,61,0.00,,---,0.00,VWS V14.01,2013-03-04 18:11:00,
2013-03-04 13:15:00,35.4,22.9,28.34,WNW,296,6.0,6.0,60,0.00,,---,0.00,VWS V14.01,2013-03-04 18:15:00,
2013-03-04 13:16:00,35.4,23.0,29.14,NW,311,8.0,16.0,60,0.00,,,0.00,meteohub,2013-03-04 18:16:00,
2013-03-04 13:18:00,35.2,22.7,28.34,NW,322,6.0,6.0,60,0.00,,---,0.00,VWS V14.01,2013-03-04 18:18:00,
2013-03-04 13:20:00,35.2,22.7,28.34,North,351,6.9,6.9,60,0.00,,---,0.00,VWS V14.01,2013-03-04 18:20:00,
2013-03-04 13:23:00,35.4,23.3,28.34,West,270,6.9,6.9,61,0.00,,---,0.00,VWS V14.01,2013-03-04 18:23:00,
2013-03-04 13:25:00,35.8,23.3,28.34,NW,321,6.9,6.9,60,0.00,,---,0.00,VWS V14.01,2013-03-04 18:25:00,
2013-03-04 13:28:00,35.8,23.3,28.34,WSW,258,6.9,6.9,60,0.00,,---,0.00,VWS V14.01,2013-03-04 18:28:00,
2013-03-04 13:29:00,36.0,23.9,29.13,NW,317,3.0,17.0,61,0.00,,,0.00,meteohub,2013-03-04 18:29:00,
2013-03-04 13:31:00,36.3,24.1,29.13,WNW,285,6.0,17.0,61,0.00,,,0.00,meteohub,2013-03-04 18:31:00,
2013-03-04 13:34:00,36.7,24.1,28.34,WSW,251,6.0,6.0,60,0.00,,---,0.00,VWS V14.01,2013-03-04 18:34:00,
2013-03-04 13:39:00,36.9,23.9,28.33,West,276,6.0,6.0,59,0.00,,---,0.00,VWS V14.01,2013-03-04 18:39:00,
2013-03-04 13:40:00,36.9,23.9,28.33,West,276,6.0,6.0,59,0.00,,---,0.00,VWS V14.01,2013-03-04 18:40:00,
2013-03-04 13:45:00,37.0,23.7,29.13,NW,325,2.0,19.0,58,0.00,,,0.00,meteohub,2013-03-04 18:45:00,
2013-03-04 13:46:00,37.0,23.6,28.34,NW,323,6.0,6.0,58,0.00,,---,0.00,VWS V14.01,2013-03-04 18:46:00,
2013-03-04 13:51:00,36.9,23.5,28.34,WSW,240,6.0,6.0,58,0.00,,---,0.00,VWS V14.01,2013-03-04 18:51:00,
2013-03-04 13:56:00,36.9,23.9,28.34,WNW,287,6.0,6.0,59,0.00,,---,0.00,VWS V14.01,2013-03-04 18:56:00,
2013-03-04 14:01:00,37.2,25.0,28.34,WNW,294,4.0,4.0,61,0.00,,---,0.00,VWS V14.01,2013-03-04 19:01:00,
2013-03-04 14:06:00,37.2,23.8,28.34,WSW,257,4.0,4.0,58,0.00,,---,0.00,VWS V14.01,2013-03-04 19:06:00,
2013-03-04 14:11:00,36.9,23.5,28.34,SSW,209,4.9,4.9,58,0.00,,---,0.00,VWS V14.01,2013-03-04 19:11:00,
2013-03-04 14:16:00,36.3,23.0,28.34,WNW,285,4.9,4.9,58,0.00,,---,0.00,VWS V14.01,2013-03-04 19:16:00,
2013-03-04 14:21:00,36.0,22.7,28.34,NW,325,6.0,6.0,58,0.00,,---,0.00,VWS V14.01,2013-03-04 19:21:00,
2013-03-04 14:26:00,35.4,22.5,28.34,NW,319,4.9,6.0,59,0.00,,---,0.00,VWS V14.01,2013-03-04 19:26:00,
2013-03-04 14:27:00,35.4,22.5,28.33,West,281,6.0,6.0,59,0.00,,---,0.00,VWS V14.01,2013-03-04 19:27:00,
2013-03-04 14:31:00,35.8,23.7,28.33,WNW,284,4.9,4.9,61,0.00,,---,0.00,VWS V14.01,2013-03-04 19:31:00,
2013-03-04 14:32:00,35.8,23.3,28.33,NW,324,4.9,4.9,60,0.00,,---,0.00,VWS V14.01,2013-03-04 19:32:00,
2013-03-04 14:37:00,36.3,24.1,29.13,WNW,297,4.0,15.0,61,0.00,,,0.00,meteohub,2013-03-04 19:37:00,
2013-03-04 14:42:00,36.9,24.3,28.33,WNW,288,4.9,4.9,60,0.00,,---,0.00,VWS V14.01,2013-03-04 19:42:00,
2013-03-04 14:47:00,37.2,23.8,28.33,NNW,338,6.0,6.0,58,0.00,,---,0.00,VWS V14.01,2013-03-04 19:47:00,
2013-03-04 14:52:00,37.2,23.8,28.33,WNW,292,6.0,6.0,58,0.00,,---,0.00,VWS V14.01,2013-03-04 19:52:00,
2013-03-04 14:53:00,37.4,24.4,28.34,SW,219,6.0,6.0,59,0.00,,---,0.00,VWS V14.01,2013-03-04 19:53:00,
2013-03-04 14:57:00,37.4,24.0,28.33,SW,236,6.0,6.0,58,0.00,,---,0.00,VWS V14.01,2013-03-04 19:57:00,
2013-03-04 14:58:00,37.4,24.4,28.33,SW,234,4.9,6.0,59,0.00,,---,0.00,VWS V14.01,2013-03-04 19:58:00,
2013-03-04 15:02:00,37.4,24.4,28.33,SW,229,6.0,6.0,59,0.00,,---,0.00,VWS V14.01,2013-03-04 20:02:00,
2013-03-04 15:03:00,37.6,24.2,28.33,West,279,6.0,6.0,58,0.00,,---,0.00,VWS V14.01,2013-03-04 20:03:00,
2013-03-04 15:05:00,37.6,24.2,28.33,West,277,4.9,4.9,58,0.00,,---,0.00,VWS V14.01,2013-03-04 20:05:00,
2013-03-04 15:07:00,37.6,24.2,28.33,WSW,248,4.9,4.9,58,0.00,,---,0.00,VWS V14.01,2013-03-04 20:07:00,
2013-03-04 15:08:00,37.6,24.2,28.33,NW,305,4.9,4.9,58,0.00,,---,0.00,VWS V14.01,2013-03-04 20:08:00,
2013-03-04 15:11:00,37.6,24.6,28.33,WSW,244,4.0,4.9,59,0.00,,---,0.00,VWS V14.01,2013-03-04 20:11:00,
2013-03-04 15:12:00,37.6,23.8,28.33,SSW,196,4.0,4.9,57,0.00,,---,0.00,VWS V14.01,2013-03-04 20:12:00,
2013-03-04 15:13:00,37.6,23.8,28.33,SSW,210,4.9,4.9,57,0.00,,---,0.00,VWS V14.01,2013-03-04 20:13:00,
2013-03-04 15:16:00,37.4,23.6,28.34,NNW,331,4.9,4.9,57,0.00,,---,0.00,VWS V14.01,2013-03-04 20:16:00,
2013-03-04 15:18:00,37.2,23.7,29.13,WSW,239,5.0,13.0,58,0.00,,,0.00,meteohub,2013-03-04 20:18:00,
2013-03-04 15:19:00,37.2,23.8,28.34,West,277,4.9,4.9,58,0.00,,---,0.00,VWS V14.01,2013-03-04 20:19:00,
2013-03-04 15:21:00,37.2,24.2,28.34,NW,325,4.9,4.9,59,0.00,,---,0.00,VWS V14.01,2013-03-04 20:21:00,
2013-03-04 15:24:00,37.4,24.0,28.33,West,259,4.9,4.9,58,0.00,,---,0.00,VWS V14.01,2013-03-04 20:24:00,
2013-03-04 15:26:00,37.6,24.6,28.33,West,263,4.9,4.9,59,0.00,,---,0.00,VWS V14.01,2013-03-04 20:26:00,
2013-03-04 15:29:00,37.6,24.2,28.34,West,278,4.9,4.9,58,0.00,,---,0.00,VWS V14.01,2013-03-04 20:29:00,
2013-03-04 15:30:00,37.6,24.6,28.34,West,275,4.9,4.9,59,0.00,,---,0.00,VWS V14.01,2013-03-04 20:30:00,
2013-03-04 15:31:00,37.6,24.6,28.34,NW,316,4.9,4.9,59,0.00,,---,0.00,VWS V14.01,2013-03-04 20:31:00,
2013-03-04 15:34:00,37.6,24.6,28.34,WSW,257,4.9,4.9,59,0.00,,---,0.00,VWS V14.01,2013-03-04 20:34:00,
2013-03-04 15:35:00,37.6,24.6,28.34,WSW,257,4.9,4.9,59,0.00,,---,0.00,VWS V14.01,2013-03-04 20:35:00,
2013-03-04 15:36:00,37.6,24.6,28.34,WNW,288,4.9,4.9,59,0.00,,---,0.00,VWS V14.01,2013-03-04 20:36:00,
2013-03-04 15:38:00,37.6,24.6,29.14,WNW,300,4.0,14.0,59,0.00,,,0.00,meteohub,2013-03-04 20:38:00,
2013-03-04 15:39:00,37.6,24.2,28.34,WNW,296,4.0,4.9,58,0.00,,---,0.00,VWS V14.01,2013-03-04 20:39:00,
2013-03-04 15:40:00,37.6,24.2,28.34,WNW,296,4.0,4.9,58,0.00,,---,0.00,VWS V14.01,2013-03-04 20:40:00,
2013-03-04 15:41:00,37.6,24.2,28.34,WNW,287,4.9,4.9,58,0.00,,---,0.00,VWS V14.01,2013-03-04 20:41:00,
2013-03-04 15:44:00,37.2,24.2,28.34,West,281,4.9,4.9,59,0.00,,---,0.00,VWS V14.01,2013-03-04 20:44:00,
2013-03-04 15:45:00,37.2,24.2,28.34,West,281,4.9,4.9,59,0.00,,---,0.00,VWS V14.01,2013-03-04 20:45:00,
2013-03-04 15:47:00,37.0,24.0,28.34,WNW,289,4.9,4.9,59,0.00,,---,0.00,VWS V14.01,2013-03-04 20:47:00,
2013-03-04 15:48:00,37.0,24.0,28.35,NW,309,4.9,4.9,59,0.00,,---,0.00,VWS V14.01,2013-03-04 20:48:00,
2013-03-04 15:49:00,36.9,23.9,28.34,NW,310,4.0,4.9,59,0.00,,---,0.00,VWS V14.01,2013-03-04 20:49:00,
2013-03-04 15:50:00,36.9,23.9,28.34,NW,310,4.0,4.9,59,0.00,,---,0.00,VWS V14.01,2013-03-04 20:50:00,
2013-03-04 15:52:00,36.5,23.5,28.35,West,272,4.0,4.9,59,0.00,,---,0.00,VWS V14.01,2013-03-04 20:52:00,
2013-03-04 15:53:00,36.5,23.5,28.35,West,272,4.0,4.9,59,0.00,,---,0.00,VWS V14.01,2013-03-04 20:53:00,
2013-03-04 15:54:00,36.1,23.6,28.34,WNW,285,4.9,4.9,60,0.00,,---,0.00,VWS V14.01,2013-03-04 20:54:00,
2013-03-04 15:55:00,36.1,23.6,28.34,WNW,285,4.9,4.9,60,0.00,,---,0.00,VWS V14.01,2013-03-04 20:55:00,
2013-03-04 15:57:00,36.0,23.5,28.34,NW,317,4.9,4.9,60,0.00,,---,0.00,VWS V14.01,2013-03-04 20:57:00,
2013-03-04 15:58:00,36.0,23.5,28.34,NW,317,4.9,4.9,60,0.00,,---,0.00,VWS V14.01,2013-03-04 20:58:00,
2013-03-04 16:02:00,35.6,23.1,28.34,WNW,290,4.9,4.9,60,0.00,,---,0.00,VWS V14.01,2013-03-04 21:02:00,
2013-03-04 16:03:00,35.6,23.9,28.34,West,281,4.0,4.9,62,0.00,,---,0.00,VWS V14.01,2013-03-04 21:03:00,
2013-03-04 16:07:00,35.8,24.1,28.34,West,270,4.0,4.9,62,0.00,,---,0.00,VWS V14.01,2013-03-04 21:07:00,
2013-03-04 16:08:00,35.8,24.1,28.34,SW,221,4.0,4.9,62,0.00,,---,0.00,VWS V14.01,2013-03-04 21:08:00,
2013-03-04 16:12:00,36.0,23.9,28.34,WNW,302,4.0,4.9,61,0.00,,---,0.00,VWS V14.01,2013-03-04 21:12:00,
2013-03-04 16:13:00,36.0,23.9,28.34,East,83,4.0,4.9,61,0.00,,---,0.00,VWS V14.01,2013-03-04 21:13:00,
2013-03-04 16:14:00,36.0,23.9,28.35,NW,304,4.0,4.9,61,0.00,,---,0.00,VWS V14.01,2013-03-04 21:14:00,
2013-03-04 16:17:00,35.8,23.7,28.34,West,265,4.9,4.9,61,0.00,,---,0.00,VWS V14.01,2013-03-04 21:17:00,
2013-03-04 16:18:00,35.8,23.3,28.34,West,280,4.9,4.9,60,0.00,,---,0.00,VWS V14.01,2013-03-04 21:18:00,
2013-03-04 16:19:00,35.8,23.3,28.34,WSW,251,4.9,4.9,60,0.00,,---,0.00,VWS V14.01,2013-03-04 21:19:00,
2013-03-04 16:22:00,35.8,23.7,28.35,West,274,4.0,4.9,61,0.00,,---,0.00,VWS V14.01,2013-03-04 21:22:00,
2013-03-04 16:23:00,35.8,24.1,28.35,West,260,4.0,4.9,62,0.00,,---,0.00,VWS V14.01,2013-03-04 21:23:00,
2013-03-04 16:24:00,35.6,23.9,28.35,NW,320,4.0,4.9,62,0.00,,---,0.00,VWS V14.01,2013-03-04 21:24:00,
2013-03-04 16:28:00,35.6,23.9,29.14,WSW,246,4.0,17.0,62,0.00,,,0.00,meteohub,2013-03-04 21:28:00,
2013-03-04 16:30:00,35.4,23.3,28.35,West,260,4.0,4.0,61,0.00,,---,0.00,VWS V14.01,2013-03-04 21:30:00,
2013-03-04 16:33:00,35.2,23.1,28.35,WNW,290,4.0,4.0,61,0.00,,---,0.00,VWS V14.01,2013-03-04 21:33:00,
2013-03-04 16:35:00,35.2,23.1,28.35,WSW,257,4.0,4.0,61,0.00,,---,0.00,VWS V14.01,2013-03-04 21:35:00,
2013-03-04 16:38:00,35.1,23.0,28.35,WNW,283,4.9,4.9,61,0.00,,---,0.00,VWS V14.01,2013-03-04 21:38:00,
2013-03-04 16:42:00,34.9,22.8,28.35,SW,232,4.0,4.0,61,0.00,,---,0.00,VWS V14.01,2013-03-04 21:42:00,
2013-03-04 16:43:00,34.9,23.2,28.36,WSW,257,4.0,4.0,62,0.00,,---,0.00,VWS V14.01,2013-03-04 21:43:00,
2013-03-04 16:44:00,34.9,22.8,28.35,North,355,4.0,4.0,61,0.00,,---,0.00,VWS V14.01,2013-03-04 21:44:00,
2013-03-04 16:47:00,34.7,23.0,28.35,WSW,242,4.0,4.0,62,0.00,,---,0.00,VWS V14.01,2013-03-04 21:47:00,
2013-03-04 16:48:00,34.5,22.8,28.35,WNW,282,4.0,4.0,62,0.00,,---,0.00,VWS V14.01,2013-03-04 21:48:00,
2013-03-04 16:49:00,34.5,22.8,28.35,WNW,296,4.0,4.0,62,0.00,,---,0.00,VWS V14.01,2013-03-04 21:49:00,
2013-03-04 16:52:00,34.3,22.6,28.35,NW,319,4.9,4.9,62,0.00,,---,0.00,VWS V14.01,2013-03-04 21:52:00,
2013-03-04 16:53:00,34.3,22.3,28.35,NNW,333,4.9,4.9,61,0.00,,---,0.00,VWS V14.01,2013-03-04 21:53:00,
2013-03-04 16:54:00,34.3,22.6,28.35,West,275,4.9,4.9,62,0.00,,---,0.00,VWS V14.01,2013-03-04 21:54:00,
2013-03-04 16:57:00,34.3,22.6,28.36,West,270,4.9,4.9,62,0.00,,---,0.00,VWS V14.01,2013-03-04 21:57:00,
2013-03-04 16:58:00,34.3,22.6,28.35,SSE,157,4.9,4.9,62,0.00,,---,0.00,VWS V14.01,2013-03-04 21:58:00,
2013-03-04 16:59:00,34.3,22.6,28.35,SW,235,4.9,4.9,62,0.00,,---,0.00,VWS V14.01,2013-03-04 21:59:00,
2013-03-04 17:02:00,34.0,22.4,28.36,NW,306,4.9,6.0,62,0.00,,---,0.00,VWS V14.01,2013-03-04 22:02:00,
2013-03-04 17:03:00,34.0,22.4,28.36,NW,306,4.9,6.0,62,0.00,,---,0.00,VWS V14.01,2013-03-04 22:03:00,
2013-03-04 17:04:00,34.0,22.4,28.36,NW,306,4.9,6.0,62,0.00,,---,0.00,VWS V14.01,2013-03-04 22:04:00,
2013-03-04 17:08:00,33.8,22.2,28.36,North,0,4.0,6.0,62,0.00,,---,0.00,VWS V14.01,2013-03-04 22:08:00,
2013-03-04 17:09:00,33.8,22.1,29.16,WSW,240,5.0,14.0,62,0.00,,,0.00,meteohub,2013-03-04 22:09:00,
2013-03-04 17:10:00,33.6,22.4,28.36,WSW,256,2.9,2.9,63,0.00,,---,0.00,VWS V14.01,2013-03-04 22:10:00,
2013-03-04 17:13:00,33.6,22.0,28.36,West,268,2.9,2.9,62,0.00,,---,0.00,VWS V14.01,2013-03-04 22:13:00,
2013-03-04 17:15:00,33.6,22.0,28.36,WSW,250,4.0,4.0,62,0.00,,---,0.00,VWS V14.01,2013-03-04 22:15:00,
2013-03-04 17:16:00,33.6,22.0,28.36,WSW,250,4.0,4.0,62,0.00,,---,0.00,VWS V14.01,2013-03-04 22:16:00,
2013-03-04 17:18:00,33.6,22.4,28.36,WSW,255,4.0,4.0,63,0.00,,---,0.00,VWS V14.01,2013-03-04 22:18:00,
2013-03-04 17:20:00,33.6,22.4,28.36,West,281,4.0,4.9,63,0.00,,---,0.00,VWS V14.01,2013-03-04 22:20:00,
2013-03-04 17:21:00,33.6,22.4,28.36,West,281,4.0,4.9,63,0.00,,---,0.00,VWS V14.01,2013-03-04 22:21:00,
2013-03-04 17:22:00,33.6,22.5,29.16,NW,318,1.0,13.0,63,0.00,,,0.00,meteohub,2013-03-04 22:22:00,
2013-03-04 17:25:00,33.6,22.4,28.36,WNW,296,4.0,4.0,63,0.00,,---,0.00,VWS V14.01,2013-03-04 22:25:00,
2013-03-04 17:26:00,33.4,22.2,28.36,West,279,2.9,4.0,63,0.00,,---,0.00,VWS V14.01,2013-03-04 22:26:00,
2013-03-04 17:30:00,33.4,22.2,28.37,SSW,196,4.0,4.0,63,0.00,,---,0.00,VWS V14.01,2013-03-04 22:30:00,
2013-03-04 17:31:00,33.4,22.2,28.37,NNW,334,4.0,4.0,63,0.00,,---,0.00,VWS V14.01,2013-03-04 22:31:00,
2013-03-04 17:34:00,33.3,22.1,29.16,West,264,4.0,12.0,63,0.00,,,0.00,meteohub,2013-03-04 22:34:00,
2013-03-04 17:35:00,33.3,22.1,28.37,NW,314,4.9,4.9,63,0.00,,---,0.00,VWS V14.01,2013-03-04 22:35:00,
2013-03-04 17:36:00,33.3,22.1,28.37,NW,306,4.9,4.9,63,0.00,,---,0.00,VWS V14.01,2013-03-04 22:36:00,
2013-03-04 17:40:00,33.1,21.9,28.37,SSW,205,4.9,6.0,63,0.00,,---,0.00,VWS V14.01,2013-03-04 22:40:00,
2013-03-04 17:41:00,33.1,21.9,28.37,SSW,205,4.9,6.0,63,0.00,,---,0.00,VWS V14.01,2013-03-04 22:41:00,
2013-03-04 17:46:00,33.1,22.3,28.38,NW,317,4.9,6.0,64,0.00,,---,0.00,VWS V14.01,2013-03-04 22:46:00,
2013-03-04 17:51:00,32.9,22.1,29.18,WSW,251,2.0,14.0,64,0.00,,,0.00,meteohub,2013-03-04 22:51:00,
2013-03-04 17:52:00,32.9,22.1,28.38,WNW,282,4.0,4.0,64,0.00,,---,0.00,VWS V14.01,2013-03-04 22:52:00,
2013-03-04 17:57:00,32.7,21.9,28.38,West,261,2.9,4.0,64,0.00,,---,0.00,VWS V14.01,2013-03-04 22:57:00,
2013-03-04 18:02:00,32.7,21.9,28.38,SSW,212,2.0,2.0,64,0.00,,---,0.00,VWS V14.01,2013-03-04 23:02:00,
2013-03-04 18:07:00,32.5,22.1,28.38,West,281,2.0,2.0,65,0.00,,---,0.00,VWS V14.01,2013-03-04 23:07:00,
2013-03-04 18:08:00,32.5,21.7,28.38,South,182,2.0,2.0,64,0.00,,---,0.00,VWS V14.01,2013-03-04 23:08:00,
2013-03-04 18:12:00,32.5,22.1,28.38,West,265,2.9,2.9,65,0.00,,---,0.00,VWS V14.01,2013-03-04 23:12:00,
2013-03-04 18:13:00,32.5,22.1,28.38,West,277,2.9,2.9,65,0.00,,---,0.00,VWS V14.01,2013-03-04 23:13:00,
2013-03-04 18:17:00,32.4,22.0,28.38,WNW,293,2.9,2.9,65,0.00,,---,0.00,VWS V14.01,2013-03-04 23:17:00,
2013-03-04 18:18:00,32.4,22.0,28.38,WNW,293,2.9,2.9,65,0.00,,---,0.00,VWS V14.01,2013-03-04 23:18:00,
2013-03-04 18:22:00,32.4,22.3,28.38,North,350,2.0,2.0,66,0.00,,---,0.00,VWS V14.01,2013-03-04 23:22:00,
2013-03-04 18:23:00,32.4,22.3,28.38,WNW,291,2.0,2.0,66,0.00,,---,0.00,VWS V14.01,2013-03-04 23:23:00,
2013-03-04 18:27:00,32.2,21.8,28.38,WNW,291,0.9,2.0,65,0.00,,---,0.00,VWS V14.01,2013-03-04 23:27:00,
2013-03-04 18:28:00,32.2,21.8,28.39,NNW,345,0.9,2.0,65,0.00,,---,0.00,VWS V14.01,2013-03-04 23:28:00,
2013-03-04 18:33:00,32.2,22.1,29.19,West,277,2.0,6.0,66,0.00,,,0.00,meteohub,2013-03-04 23:33:00,
2013-03-04 18:34:00,32.0,21.9,28.39,NNW,328,2.9,2.9,66,0.00,,---,0.00,VWS V14.01,2013-03-04 23:34:00,
2013-03-04 18:39:00,32.0,21.9,28.39,WSW,243,4.0,4.0,66,0.00,,---,0.00,VWS V14.01,2013-03-04 23:39:00,
2013-03-04 18:40:00,32.0,21.9,28.39,WSW,243,4.0,4.0,66,0.00,,---,0.00,VWS V14.01,2013-03-04 23:40:00,
2013-03-04 18:41:00,31.8,21.7,29.19,WSW,248,1.0,13.0,66,0.00,,,0.00,meteohub,2013-03-04 23:41:00,
2013-03-04 18:45:00,31.8,21.8,28.39,North,355,2.9,4.0,66,0.00,,---,0.00,VWS V14.01,2013-03-04 23:45:00,
2013-03-04 18:50:00,31.8,21.8,28.40,WSW,258,2.0,2.0,66,0.00,,---,0.00,VWS V14.01,2013-03-04 23:50:00,
2013-03-04 18:55:00,31.6,21.6,28.39,WNW,282,2.0,2.9,66,0.00,,---,0.00,VWS V14.01,2013-03-04 23:55:00,
2013-03-04 19:00:00,31.6,21.6,28.40,WNW,296,2.9,2.9,66,0.00,,---,0.00,VWS V14.01,2013-03-05 00:00:00,
2013-03-04 19:01:00,31.6,21.6,29.20,NW,304,0.0,8.0,66,0.00,,,0.00,meteohub,2013-03-05 00:01:00,
2013-03-04 19:02:00,31.6,21.6,28.40,WSW,252,2.0,2.0,66,0.00,,---,0.00,VWS V14.01,2013-03-05 00:02:00,
2013-03-04 19:05:00,31.5,21.5,28.40,WSW,253,2.9,2.9,66,0.00,,---,0.00,VWS V14.01,2013-03-05 00:05:00,
2013-03-04 19:07:00,31.5,21.5,28.40,ESE,111,2.0,2.9,66,0.00,,---,0.00,VWS V14.01,2013-03-05 00:07:00,
2013-03-04 19:10:00,31.5,21.8,28.40,WNW,300,2.0,2.9,67,0.00,,---,0.00,VWS V14.01,2013-03-05 00:10:00,
2013-03-04 19:12:00,31.5,21.8,28.40,NW,321,2.0,2.9,67,0.00,,---,0.00,VWS V14.01,2013-03-05 00:12:00,
2013-03-04 19:13:00,31.5,21.8,28.40,NW,321,2.0,2.9,67,0.00,,---,0.00,VWS V14.01,2013-03-05 00:13:00,
2013-03-04 19:14:00,31.5,21.7,29.20,West,261,2.0,7.0,67,0.00,,,0.00,meteohub,2013-03-05 00:14:00,
2013-03-04 19:16:00,31.5,21.8,28.40,West,261,2.0,2.0,67,0.00,,---,0.00,VWS V14.01,2013-03-05 00:16:00,
2013-03-04 19:17:00,31.5,21.8,28.40,West,281,2.0,2.0,67,0.00,,---,0.00,VWS V14.01,2013-03-05 00:17:00,
2013-03-04 19:18:00,31.5,21.8,28.40,West,281,2.0,2.0,67,0.00,,---,0.00,VWS V14.01,2013-03-05 00:18:00,
2013-03-04 19:21:00,31.3,21.6,28.40,SSW,201,2.0,2.0,67,0.00,,---,0.00,VWS V14.01,2013-03-05 00:21:00,
2013-03-04 19:22:00,31.3,21.6,28.40,SW,217,2.0,2.0,67,0.00,,---,0.00,VWS V14.01,2013-03-05 00:22:00,
2013-03-04 19:23:00,31.3,21.6,28.40,SW,217,2.0,2.0,67,0.00,,---,0.00,VWS V14.01,2013-03-05 00:23:00,
2013-03-04 19:26:00,31.1,21.4,28.40,WNW,285,2.0,2.0,67,0.00,,---,0.00,VWS V14.01,2013-03-05 00:26:00,
2013-03-04 19:27:00,31.1,21.4,28.40,SSE,167,2.0,2.0,67,0.00,,---,0.00,VWS V14.01,2013-03-05 00:27:00,
2013-03-04 19:28:00,31.1,21.4,28.40,SSE,167,2.0,2.0,67,0.00,,---,0.00,VWS V14.01,2013-03-05 00:28:00,
2013-03-04 19:31:00,30.9,21.2,28.40,West,276,2.0,2.0,67,0.00,,---,0.00,VWS V14.01,2013-03-05 00:31:00,
2013-03-04 19:32:00,30.9,21.2,28.40,West,276,2.0,2.0,67,0.00,,---,0.00,VWS V14.01,2013-03-05 00:32:00,
2013-03-04 19:33:00,30.9,21.2,28.40,West,276,2.0,2.0,67,0.00,,---,0.00,VWS V14.01,2013-03-05 00:33:00,
2013-03-04 19:36:00,30.9,21.2,28.40,South,190,0.9,2.0,67,0.00,,---,0.00,VWS V14.01,2013-03-05 00:36:00,
2013-03-04 19:37:00,30.7,21.1,28.40,West,267,0.9,2.0,67,0.00,,---,0.00,VWS V14.01,2013-03-05 00:37:00,
2013-03-04 19:38:00,30.7,21.1,28.40,West,267,0.9,2.0,67,0.00,,---,0.00,VWS V14.01,2013-03-05 00:38:00,
2013-03-04 19:41:00,30.7,21.1,28.40,West,267,0.9,2.0,67,0.00,,---,0.00,VWS V14.01,2013-03-05 00:41:00,
2013-03-04 19:44:00,30.7,21.4,28.40,West,267,0.9,0.9,68,0.00,,---,0.00,VWS V14.01,2013-03-05 00:44:00,
2013-03-04 19:46:00,30.7,21.4,28.40,West,268,0.9,0.9,68,0.00,,---,0.00,VWS V14.01,2013-03-05 00:46:00,
2013-03-04 19:49:00,30.6,21.3,28.40,West,268,0.0,0.9,68,0.00,,---,0.00,VWS V14.01,2013-03-05 00:49:00,
2013-03-04 19:50:00,30.6,21.2,29.20,SW,220,3.0,5.0,68,0.00,,,0.00,meteohub,2013-03-05 00:50:00,
2013-03-04 19:51:00,30.6,21.3,28.40,SSW,209,0.9,0.9,68,0.00,,---,0.00,VWS V14.01,2013-03-05 00:51:00,
2013-03-04 19:54:00,30.6,21.3,28.40,WNW,282,0.9,0.9,68,0.00,,---,0.00,VWS V14.01,2013-03-05 00:54:00,
2013-03-04 19:58:00,30.4,21.1,28.40,NNW,327,2.0,2.0,68,0.00,,---,0.00,VWS V14.01,2013-03-05 00:58:00,
2013-03-04 19:59:00,30.4,21.1,28.40,NNW,327,2.0,2.0,68,0.00,,---,0.00,VWS V14.01,2013-03-05 00:59:00,
2013-03-04 20:03:00,30.4,21.1,28.41,West,271,0.9,2.0,68,0.00,,---,0.00,VWS V14.01,2013-03-05 01:03:00,
2013-03-04 20:04:00,30.4,21.1,28.40,West,265,0.9,2.0,68,0.00,,---,0.00,VWS V14.01,2013-03-05 01:04:00,
2013-03-04 20:08:00,30.2,20.9,28.41,West,267,2.0,2.0,68,0.00,,---,0.00,VWS V14.01,2013-03-05 01:08:00,
2013-03-04 20:09:00,30.2,20.9,28.41,West,275,2.0,2.0,68,0.00,,---,0.00,VWS V14.01,2013-03-05 01:09:00,
2013-03-04 20:13:00,30.0,21.1,28.41,SW,227,2.0,2.0,69,0.00,,---,0.00,VWS V14.01,2013-03-05 01:13:00,
2013-03-04 20:14:00,30.0,21.1,28.41,SW,227,2.0,2.0,69,0.00,,---,0.00,VWS V14.01,2013-03-05 01:14:00,
2013-03-04 20:18:00,30.0,21.1,28.41,West,263,0.9,2.0,69,0.00,,---,0.00,VWS V14.01,2013-03-05 01:18:00,
2013-03-04 20:19:00,30.0,21.1,28.41,West,263,0.9,2.0,69,0.00,,---,0.00,VWS V14.01,2013-03-05 01:19:00,
2013-03-04 20:23:00,30.0,21.1,28.41,West,281,0.9,2.0,69,0.00,,---,0.00,VWS V14.01,2013-03-05 01:23:00,
2013-03-04 20:24:00,30.0,21.1,28.41,West,281,0.9,2.0,69,0.00,,---,0.00,VWS V14.01,2013-03-05 01:24:00,
2013-03-04 20:26:00,30.0,21.1,28.41,WNW,298,2.0,2.0,69,0.00,,---,0.00,VWS V14.01,2013-03-05 01:26:00,
2013-03-04 20:28:00,30.0,21.4,28.41,WNW,298,0.9,2.0,70,0.00,,---,0.00,VWS V14.01,2013-03-05 01:28:00,
2013-03-04 20:29:00,30.0,21.4,28.41,WNW,298,0.9,2.0,70,0.00,,---,0.00,VWS V14.01,2013-03-05 01:29:00,
2013-03-04 20:31:00,30.0,21.4,28.41,WNW,298,0.9,0.9,70,0.00,,---,0.00,VWS V14.01,2013-03-05 01:31:00,
2013-03-04 20:33:00,30.0,21.4,28.42,WNW,298,0.9,0.9,70,0.00,,---,0.00,VWS V14.01,2013-03-05 01:33:00,
2013-03-04 20:34:00,30.0,21.4,28.42,WNW,298,0.9,0.9,70,0.00,,---,0.00,VWS V14.01,2013-03-05 01:34:00,
2013-03-04 20:36:00,30.0,21.4,28.42,WNW,302,0.0,0.9,70,0.00,,---,0.00,VWS V14.01,2013-03-05 01:36:00,
2013-03-04 20:37:00,30.0,21.4,28.42,WNW,302,0.0,0.9,70,0.00,,---,0.00,VWS V14.01,2013-03-05 01:37:00,
2013-03-04 20:40:00,30.0,21.4,28.42,West,270,0.0,0.0,70,0.00,,---,0.00,VWS V14.01,2013-03-05 01:40:00,
2013-03-04 20:41:00,30.0,21.4,28.42,SSW,213,0.0,0.0,70,0.00,,---,0.00,VWS V14.01,2013-03-05 01:41:00,
2013-03-04 20:42:00,30.0,21.4,28.42,West,280,0.9,0.9,70,0.00,,---,0.00,VWS V14.01,2013-03-05 01:42:00,
2013-03-04 20:45:00,30.0,21.4,28.42,WNW,300,0.9,0.9,70,0.00,,---,0.00,VWS V14.01,2013-03-05 01:45:00,
2013-03-04 20:46:00,30.0,21.4,28.42,WNW,300,0.9,0.9,70,0.00,,---,0.00,VWS V14.01,2013-03-05 01:46:00,
2013-03-04 20:47:00,30.0,21.4,28.42,WSW,250,0.9,0.9,70,0.00,,---,0.00,VWS V14.01,2013-03-05 01:47:00,
2013-03-04 20:50:00,30.0,21.4,28.42,West,274,2.0,2.0,70,0.00,,---,0.00,VWS V14.01,2013-03-05 01:50:00,
2013-03-04 20:51:00,30.0,21.4,28.42,West,274,2.0,2.0,70,0.00,,---,0.00,VWS V14.01,2013-03-05 01:51:00,
2013-03-04 20:52:00,30.0,21.4,28.42,West,274,0.9,2.0,70,0.00,,---,0.00,VWS V14.01,2013-03-05 01:52:00,
2013-03-04 20:54:00,30.0,21.4,28.42,West,274,0.9,0.9,70,0.00,,---,0.00,VWS V14.01,2013-03-05 01:54:00,
2013-03-04 20:55:00,30.0,21.4,28.42,West,274,0.9,0.9,70,0.00,,---,0.00,VWS V14.01,2013-03-05 01:55:00,
2013-03-04 20:56:00,30.0,21.4,28.42,West,274,0.9,0.9,70,0.00,,---,0.00,VWS V14.01,2013-03-05 01:56:00,
2013-03-04 20:57:00,30.0,21.4,28.42,West,274,0.9,0.9,70,0.00,,---,0.00,VWS V14.01,2013-03-05 01:57:00,
2013-03-04 21:00:00,30.0,21.4,28.42,South,188,0.9,0.9,70,0.00,,---,0.00,VWS V14.01,2013-03-05 02:00:00,
2013-03-04 21:01:00,30.0,21.4,28.42,WSW,239,2.0,2.0,70,0.00,,---,0.00,VWS V14.01,2013-03-05 02:01:00,
2013-03-04 21:02:00,30.0,21.4,28.42,West,272,0.9,2.0,70,0.00,,---,0.00,VWS V14.01,2013-03-05 02:02:00,
2013-03-04 21:05:00,30.0,21.4,28.42,SW,219,2.0,2.0,70,0.00,,---,0.00,VWS V14.01,2013-03-05 02:05:00,
2013-03-04 21:06:00,30.0,21.4,28.43,SW,219,2.0,2.0,70,0.00,,---,0.00,VWS V14.01,2013-03-05 02:06:00,
2013-03-04 21:09:00,30.0,21.4,28.43,West,275,0.9,0.9,70,0.00,,---,0.00,VWS V14.01,2013-03-05 02:09:00,
2013-03-04 21:10:00,30.0,21.4,28.43,West,277,0.9,0.9,70,0.00,,---,0.00,VWS V14.01,2013-03-05 02:10:00,
2013-03-04 21:11:00,30.0,21.4,28.42,WSW,253,0.9,0.9,70,0.00,,---,0.00,VWS V14.01,2013-03-05 02:11:00,
2013-03-04 21:14:00,30.0,21.4,28.43,WNW,285,2.0,2.0,70,0.00,,---,0.00,VWS V14.01,2013-03-05 02:14:00,
2013-03-04 21:15:00,30.0,21.4,28.43,WSW,258,2.0,2.0,70,0.00,,---,0.00,VWS V14.01,2013-03-05 02:15:00,
2013-03-04 21:16:00,30.0,21.4,28.43,WNW,296,2.0,2.0,70,0.00,,---,0.00,VWS V14.01,2013-03-05 02:16:00,
2013-03-04 21:19:00,30.0,21.4,28.43,West,275,2.0,2.0,70,0.00,,---,0.00,VWS V14.01,2013-03-05 02:19:00,
2013-03-04 21:20:00,30.0,21.4,28.43,West,268,2.0,2.0,70,0.00,,---,0.00,VWS V14.01,2013-03-05 02:20:00,
2013-03-04 21:22:00,30.0,21.4,28.43,West,268,2.0,2.0,70,0.00,,---,0.00,VWS V14.01,2013-03-05 02:22:00,
2013-03-04 21:24:00,30.0,21.4,28.43,West,268,2.0,2.0,70,0.00,,---,0.00,VWS V14.01,2013-03-05 02:24:00,
2013-03-04 21:25:00,30.0,21.4,28.43,West,268,2.0,2.0,70,0.00,,---,0.00,VWS V14.01,2013-03-05 02:25:00,
2013-03-04 21:27:00,30.0,21.4,29.23,West,263,2.0,6.0,70,0.00,,,0.00,meteohub,2013-03-05 02:27:00,
2013-03-04 21:28:00,30.0,21.4,28.43,West,263,2.0,2.0,70,0.00,,---,0.00,VWS V14.01,2013-03-05 02:28:00,
2013-03-04 21:29:00,30.0,21.4,28.43,NNW,331,2.0,2.0,70,0.00,,---,0.00,VWS V14.01,2013-03-05 02:29:00,
2013-03-04 21:30:00,30.0,21.4,28.43,NNW,346,2.0,2.0,70,0.00,,---,0.00,VWS V14.01,2013-03-05 02:30:00,
2013-03-04 21:33:00,30.0,21.4,28.43,WSW,241,2.0,2.0,70,0.00,,---,0.00,VWS V14.01,2013-03-05 02:33:00,
2013-03-04 21:34:00,30.0,21.4,28.43,WSW,239,2.0,2.0,70,0.00,,---,0.00,VWS V14.01,2013-03-05 02:34:00,
2013-03-04 21:37:00,30.0,21.4,28.43,West,267,2.0,2.0,70,0.00,,---,0.00,VWS V14.01,2013-03-05 02:37:00,
2013-03-04 21:38:00,30.0,21.8,28.43,SW,233,2.0,2.0,71,0.00,,---,0.00,VWS V14.01,2013-03-05 02:38:00,
2013-03-04 21:39:00,30.0,21.8,28.43,WNW,289,2.9,2.9,71,0.00,,---,0.00,VWS V14.01,2013-03-05 02:39:00,
2013-03-04 21:42:00,30.0,21.8,28.43,WNW,303,2.0,2.9,71,0.00,,---,0.00,VWS V14.01,2013-03-05 02:42:00,
2013-03-04 21:43:00,30.0,21.8,28.43,WNW,284,2.0,2.9,71,0.00,,---,0.00,VWS V14.01,2013-03-05 02:43:00,
2013-03-04 21:44:00,30.0,21.8,28.43,WNW,298,2.0,2.9,71,0.00,,---,0.00,VWS V14.01,2013-03-05 02:44:00,
2013-03-04 21:47:00,30.0,21.8,28.43,WNW,284,2.0,2.9,71,0.00,,---,0.00,VWS V14.01,2013-03-05 02:47:00,
2013-03-04 21:48:00,30.0,21.8,28.43,NW,317,2.0,2.9,71,0.00,,---,0.00,VWS V14.01,2013-03-05 02:48:00,
2013-03-04 21:51:00,30.0,21.8,28.43,NW,317,0.9,0.9,71,0.00,,---,0.00,VWS V14.01,2013-03-05 02:51:00,
2013-03-04 21:52:00,30.0,21.8,28.43,NW,317,0.9,0.9,71,0.00,,---,0.00,VWS V14.01,2013-03-05 02:52:00,
2013-03-04 21:53:00,29.8,21.6,28.43,NW,317,0.9,0.9,71,0.00,,---,0.00,VWS V14.01,2013-03-05 02:53:00,
2013-03-04 21:56:00,29.8,21.2,28.43,WSW,244,0.9,0.9,70,0.00,,---,0.00,VWS V14.01,2013-03-05 02:56:00,
2013-03-04 21:57:00,29.8,21.6,28.43,WSW,246,0.9,0.9,71,0.00,,---,0.00,VWS V14.01,2013-03-05 02:57:00,
2013-03-04 21:58:00,29.8,21.2,28.43,North,11,0.9,0.9,70,0.00,,---,0.00,VWS V14.01,2013-03-05 02:58:00,
2013-03-04 22:01:00,29.8,21.6,28.43,WSW,248,0.9,0.9,71,0.00,,---,0.00,VWS V14.01,2013-03-05 03:01:00,
2013-03-04 22:02:00,29.8,21.2,28.43,WNW,296,0.9,0.9,70,0.00,,---,0.00,VWS V14.01,2013-03-05 03:02:00,
2013-03-04 22:03:00,29.8,21.2,28.43,WNW,296,0.9,0.9,70,0.00,,---,0.00,VWS V14.01,2013-03-05 03:03:00,
2013-03-04 22:06:00,29.7,21.5,28.43,West,279,2.0,2.0,71,0.00,,---,0.00,VWS V14.01,2013-03-05 03:06:00,
2013-03-04 22:07:00,29.7,21.5,28.44,West,279,2.0,2.0,71,0.00,,---,0.00,VWS V14.01,2013-03-05 03:07:00,
2013-03-04 22:10:00,29.7,21.5,28.43,WSW,243,2.0,2.0,71,0.00,,---,0.00,VWS V14.01,2013-03-05 03:10:00,
2013-03-04 22:11:00,29.7,21.5,28.43,WSW,258,2.0,2.0,71,0.00,,---,0.00,VWS V14.01,2013-03-05 03:11:00,
2013-03-04 22:12:00,29.7,21.5,28.43,WSW,258,2.0,2.0,71,0.00,,---,0.00,VWS V14.01,2013-03-05 03:12:00,
2013-03-04 22:15:00,29.7,21.5,28.43,WSW,257,2.0,2.0,71,0.00,,---,0.00,VWS V14.01,2013-03-05 03:15:00,
2013-03-04 22:16:00,29.7,21.5,28.43,WSW,257,2.0,2.0,71,0.00,,---,0.00,VWS V14.01,2013-03-05 03:16:00,
2013-03-04 22:17:00,29.7,21.5,28.43,WSW,258,2.0,2.0,71,0.00,,---,0.00,VWS V14.01,2013-03-05 03:17:00,
2013-03-04 22:20:00,29.7,21.5,28.43,NNE,28,2.0,2.0,71,0.00,,---,0.00,VWS V14.01,2013-03-05 03:20:00,
2013-03-04 22:21:00,29.7,21.5,28.43,NNE,28,2.0,2.0,71,0.00,,---,0.00,VWS V14.01,2013-03-05 03:21:00,
2013-03-04 22:24:00,29.5,21.3,28.43,WSW,245,2.0,2.0,71,0.00,,---,0.00,VWS V14.01,2013-03-05 03:24:00,
2013-03-04 22:25:00,29.5,21.3,28.43,WSW,238,2.0,2.0,71,0.00,,---,0.00,VWS V14.01,2013-03-05 03:25:00,
2013-03-04 22:26:00,29.5,21.3,28.43,WSW,238,2.0,2.0,71,0.00,,---,0.00,VWS V14.01,2013-03-05 03:26:00,
2013-03-04 22:29:00,29.5,21.3,28.44,NNW,328,2.0,2.0,71,0.00,,---,0.00,VWS V14.01,2013-03-05 03:29:00,
2013-03-04 22:30:00,29.5,21.3,28.43,West,267,2.0,2.0,71,0.00,,---,0.00,VWS V14.01,2013-03-05 03:30:00,
2013-03-04 22:31:00,29.5,21.3,28.43,West,267,2.0,2.0,71,0.00,,---,0.00,VWS V14.01,2013-03-05 03:31:00,
2013-03-04 22:34:00,29.5,21.6,28.44,West,264,2.0,2.0,72,0.00,,---,0.00,VWS V14.01,2013-03-05 03:34:00,
2013-03-04 22:35:00,29.5,21.6,28.43,WSW,251,2.0,2.0,72,0.00,,---,0.00,VWS V14.01,2013-03-05 03:35:00,
2013-03-04 22:38:00,29.5,21.6,28.44,WSW,251,0.9,0.9,72,0.00,,---,0.00,VWS V14.01,2013-03-05 03:38:00,
2013-03-04 22:39:00,29.5,21.6,28.44,West,279,2.0,2.0,72,0.00,,---,0.00,VWS V14.01,2013-03-05 03:39:00,
2013-03-04 22:40:00,29.5,21.6,28.44,West,279,2.0,2.0,72,0.00,,---,0.00,VWS V14.01,2013-03-05 03:40:00,
2013-03-04 22:43:00,29.5,21.6,28.44,WNW,284,0.9,2.0,72,0.00,,---,0.00,VWS V14.01,2013-03-05 03:43:00,
2013-03-04 22:44:00,29.7,21.8,28.44,SSW,194,0.9,2.0,72,0.00,,---,0.00,VWS V14.01,2013-03-05 03:44:00,
2013-03-04 22:45:00,29.7,21.8,28.44,WSW,237,0.9,2.0,72,0.00,,---,0.00,VWS V14.01,2013-03-05 03:45:00,
2013-03-04 22:48:00,29.7,21.8,28.44,WNW,289,2.0,2.0,72,0.00,,---,0.00,VWS V14.01,2013-03-05 03:48:00,
2013-03-04 22:51:00,29.7,21.8,28.44,WNW,292,2.0,2.0,72,0.00,,---,0.00,VWS V14.01,2013-03-05 03:51:00,
2013-03-04 22:53:00,29.7,21.5,28.44,WNW,292,2.0,2.0,71,0.00,,---,0.00,VWS V14.01,2013-03-05 03:53:00,
2013-03-04 22:56:00,29.7,21.5,28.44,SW,222,2.0,2.0,71,0.00,,---,0.00,VWS V14.01,2013-03-05 03:56:00,
2013-03-04 22:57:00,29.7,21.5,28.44,SW,222,2.0,2.0,71,0.00,,---,0.00,VWS V14.01,2013-03-05 03:57:00,
2013-03-04 22:58:00,29.7,21.5,28.44,West,280,2.0,2.0,71,0.00,,---,0.00,VWS V14.01,2013-03-05 03:58:00,
2013-03-04 23:02:00,29.7,21.5,28.44,NW,307,2.0,2.0,71,0.00,,---,0.00,VWS V14.01,2013-03-05 04:02:00,
2013-03-04 23:03:00,29.7,21.8,28.44,WNW,289,2.0,2.0,72,0.00,,---,0.00,VWS V14.01,2013-03-05 04:03:00,
2013-03-04 23:07:00,29.7,21.8,28.44,WSW,251,2.0,2.0,72,0.00,,---,0.00,VWS V14.01,2013-03-05 04:07:00,
2013-03-04 23:08:00,29.7,21.8,28.44,WSW,251,2.0,2.0,72,0.00,,---,0.00,VWS V14.01,2013-03-05 04:08:00,
2013-03-04 23:12:00,29.7,21.8,28.44,WSW,243,2.0,2.0,72,0.00,,---,0.00,VWS V14.01,2013-03-05 04:12:00,
2013-03-04 23:13:00,29.7,21.8,28.44,WSW,243,2.0,2.0,72,0.00,,---,0.00,VWS V14.01,2013-03-05 04:13:00,
2013-03-04 23:15:00,29.7,21.7,29.23,SW,215,3.0,6.0,72,0.00,,,0.00,meteohub,2013-03-05 04:15:00,
2013-03-04 23:17:00,29.7,21.8,28.44,West,262,2.0,2.0,72,0.00,,---,0.00,VWS V14.01,2013-03-05 04:17:00,
2013-03-04 23:19:00,29.5,21.6,28.44,SSW,192,2.0,2.0,72,0.00,,---,0.00,VWS V14.01,2013-03-05 04:19:00,
2013-03-04 23:20:00,29.5,21.6,28.44,SSW,192,2.0,2.0,72,0.00,,---,0.00,VWS V14.01,2013-03-05 04:20:00,
2013-03-04 23:22:00,29.5,21.6,28.44,WSW,248,2.0,2.0,72,0.00,,---,0.00,VWS V14.01,2013-03-05 04:22:00,
2013-03-04 23:25:00,29.5,21.6,28.44,WSW,248,0.9,2.0,72,0.00,,---,0.00,VWS V14.01,2013-03-05 04:25:00,
2013-03-04 23:27:00,29.5,21.6,28.44,WSW,248,0.9,2.0,72,0.00,,---,0.00,VWS V14.01,2013-03-05 04:27:00,
2013-03-04 23:30:00,29.5,21.6,28.44,SW,222,0.9,0.9,72,0.00,,---,0.00,VWS V14.01,2013-03-05 04:30:00,
2013-03-04 23:33:00,29.5,21.6,28.44,SSW,200,0.9,0.9,72,0.00,,---,0.00,VWS V14.01,2013-03-05 04:33:00,
2013-03-04 23:34:00,29.5,21.6,28.44,SSW,200,0.9,0.9,72,0.00,,---,0.00,VWS V14.01,2013-03-05 04:34:00,
2013-03-04 23:35:00,29.5,21.6,28.44,West,271,2.0,2.0,72,0.00,,---,0.00,VWS V14.01,2013-03-05 04:35:00,
2013-03-04 23:39:00,29.5,21.6,28.44,WNW,293,2.0,2.0,72,0.00,,---,0.00,VWS V14.01,2013-03-05 04:39:00,
2013-03-04 23:40:00,29.5,21.6,28.44,WNW,293,2.0,2.0,72,0.00,,---,0.00,VWS V14.01,2013-03-05 04:40:00,
2013-03-04 23:44:00,29.5,21.6,28.44,West,268,0.9,2.0,72,0.00,,---,0.00,VWS V14.01,2013-03-05 04:44:00,
2013-03-04 23:45:00,29.5,21.6,28.44,West,268,2.0,2.0,72,0.00,,---,0.00,VWS V14.01,2013-03-05 04:45:00,
2013-03-04 23:49:00,29.7,21.8,28.44,NW,309,2.0,2.0,72,0.00,,---,0.00,VWS V14.01,2013-03-05 04:49:00,
2013-03-04 23:50:00,29.7,21.8,28.44,NNW,327,0.9,2.0,72,0.00,,---,0.00,VWS V14.01,2013-03-05 04:50:00,
2013-03-04 23:54:00,29.7,21.8,28.44,NW,319,2.0,2.0,72,0.00,,---,0.00,VWS V14.01,2013-03-05 04:54:00,
2013-03-04 23:55:00,29.7,21.8,28.44,NW,319,2.0,2.0,72,0.00,,---,0.00,VWS V14.01,2013-03-05 04:55:00,
2013-03-04 23:59:00,29.7,21.5,28.44,WSW,238,2.0,2.0,71,0.00,,---,0.00,VWS V14.01,2013-03-05 04:59:00,